GFSWCAN_sfc_rhum_009.txt.gz
RH
92 92 93 95 94 93 92 91 91 92 93 94 94 96 96 95 95 80 93 92 76 90 89 87 73 78 79 81 86 79 78 83 92 80 86 94 98 88 85 76 86 89 94 99 97 97 69 56 60 67 67 84 80 86
92 92 94 94 93 92 91 91 92 94 94 97 98 99 99 97 96 90 86 94 92 84 85 84 83 82 78 62 84 84 69 78 88 91 96 99 98 99 92 85 75 76 70 82 75 76 59 58 65 66 76 84 89 87
93 93 94 94 93 92 92 93 94 96 99 98 99 99 99 98 97 89 96 97 84 95 85 81 86 76 67 73 68 73 90 81 86 86 98 100 85 96 97 96 87 73 72 87 78 61 65 63 69 84 86 84 89 83
94 94 94 94 94 94 95 95 97 98 99 98 98 98 99 98 99 91 97 98 84 92 97 87 79 75 68 72 75 66 81 90 92 94 99 100 89 85 95 82 90 74 74 74 84 71 77 74 80 84 88 88 86 80
98 97 96 97 98 98 97 99 98 99 98 98 97 99 99 99 99 92 97 98 96 71 91 98 82 75 74 76 81 80 79 87 96 98 100 93 97 98 100 98 97 76 68 83 77 62 71 66 74 86 90 89 83 78
98 98 97 97 95 94 96 98 99 98 98 99 98 99 99 95 97 79 77 93 98 94 92 93 91 87 85 87 85 85 90 93 94 95 100 98 86 90 99 97 78 71 69 58 58 63 69 77 81 86 83 81 80 53
96 96 96 96 96 96 95 99 99 98 96 96 99 99 98 91 95 82 67 94 98 91 96 99 98 91 92 95 98 95 97 98 94 99 100 99 99 92 100 99 63 69 68 70 73 84 89 89 89 82 62 58 50 42
95 95 96 96 96 96 95 97 99 98 97 96 97 98 99 96 96 97 99 98 98 90 93 99 98 98 91 100 100 99 100 98 98 98 100 100 98 100 99 89 78 66 65 71 76 81 78 83 75 52 45 44 48 53
97 96 95 96 96 96 96 97 99 98 96 96 95 90 92 98 99 99 98 98 97 90 99 99 95 91 96 100 100 100 99 100 98 100 100 99 100 99 93 86 81 78 80 77 90 81 81 66 47 42 47 55 62 64
97 98 97 95 96 97 98 98 99 97 96 94 92 93 99 100 93 93 92 98 99 100 99 98 99 100 97 100 100 99 100 100 98 99 99 100 99 93 88 84 87 85 77 87 85 83 64 61 70 82 84 81 62 63
94 96 97 98 98 98 99 99 98 93 90 97 99 100 98 91 95 97 99 98 98 100 99 100 100 100 96 99 100 100 100 100 99 96 100 98 97 88 81 83 75 78 71 68 68 69 73 80 85 87 76 77 77 69
94 93 92 92 93 95 96 95 91 97 100 96 97 95 93 94 99 98 98 100 98 99 99 100 100 99 100 97 99 100 100 100 98 97 100 94 92 73 70 76 76 76 80 84 84 83 80 82 84 87 82 79 88 86
94 93 92 92 92 90 89 94 96 95 92 93 93 98 91 99 99 99 99 100 100 100 100 100 100 100 99 98 100 100 100 99 99 100 99 100 75 73 78 82 82 82 90 93 92 89 74 63 71 87 86 90 93 89
93 92 90 90 89 90 88 89 85 86 91 98 100 99 100 99 99 100 99 100 100 100 100 100 100 100 100 100 100 99 99 99 99 99 98 100 99 98 90 87 79 79 90 85 72 76 87 90 89 92 93 95 97 98
91 91 89 91 91 89 89 87 89 87 93 96 92 99 99 99 100 100 100 100 100 99 100 100 100 99 99 99 100 99 98 98 98 99 99 100 99 97 80 67 75 83 88 82 76 84 85 88 91 92 94 98 98 98
87 89 96 92 91 87 89 89 91 91 95 89 92 98 100 98 100 100 100 100 100 100 100 100 100 99 99 99 98 98 97 98 99 100 100 100 86 94 94 88 84 86 84 80 88 92 93 92 93 91 96 97 97 98
89 100 92 89 89 86 84 89 94 92 94 86 99 100 99 99 100 100 100 100 99 100 99 99 98 96 99 98 98 99 99 100 100 100 100 94 83 94 95 90 91 86 86 83 90 80 92 95 99 99 94 84 92 93
99 98 92 89 90 86 90 93 94 90 91 100 98 100 99 100 100 100 100 100 99 96 99 98 96 99 98 98 98 99 100 100 100 99 98 88 80 79 75 74 74 74 75 88 93 90 93 94 92 93 89 88 94 94
96 94 88 88 88 93 92 92 92 94 96 99 100 99 99 100 99 100 100 100 99 98 96 98 97 99 98 99 99 100 100 100 99 98 94 81 79 82 83 78 78 80 84 84 85 95 95 90 94 95 94 96 99 98
85 87 89 88 86 96 90 94 90 92 84 95 99 99 99 98 99 99 100 100 99 98 96 98 99 97 97 96 97 98 99 99 96 96 95 96 96 85 82 88 96 91 94 92 94 97 95 95 94 95 97 96 97 95
93 95 94 92 95 96 95 98 94 99 99 97 100 98 99 98 98 98 99 99 98 98 98 98 99 98 99 99 99 98 96 95 95 94 93 94 96 96 96 95 95 96 98 98 96 93 93 96 94 92 93 93 92 95
98 91 99 90 90 91 92 99 100 98 96 98 99 98 98 98 98 97 98 96 94 97 99 99 96 98 98 95 97 95 88 88 91 97 98 96 99 98 97 99 97 100 97 90 87 91 93 89 89 91 93 93 92 92
85 95 99 90 87 90 95 97 99 96 94 97 99 98 98 98 98 96 96 91 95 98 97 96 94 94 96 98 94 88 92 94 95 95 99 97 99 100 99 95 91 94 93 88 88 92 95 95 92 94 93 89 91 92
90 99 87 84 89 90 94 99 98 100 99 99 99 98 99 98 96 98 92 94 99 97 96 95 94 96 93 91 90 89 84 85 95 94 98 97 95 95 91 91 97 95 94 95 96 98 94 94 96 93 93 93 91 93
95 94 93 98 98 98 98 100 99 99 98 99 98 98 99 98 97 96 96 97 99 98 98 96 97 94 96 96 94 91 86 83 89 91 94 90 94 91 94 92 98 93 92 96 95 96 94 93 93 93 93 93 95 93
92 93 96 95 98 97 99 100 100 98 100 99 97 98 98 97 97 97 96 98 98 98 98 98 97 95 94 91 91 90 79 84 92 95 88 88 92 99 100 100 97 96 93 100 98 97 96 93 94 94 94 91 92 94
99 97 98 97 98 98 98 98 97 98 97 97 97 98 98 97 97 97 98 96 97 98 96 95 93 94 92 88 77 83 90 94 98 91 89 87 88 89 94 100 99 95 95 98 99 100 99 96 95 94 94 92 96 96
99 98 96 94 99 98 98 98 98 98 98 98 97 97 97 96 96 96 96 97 96 95 94 94 91 91 89 88 96 93 87 97 94 94 96 95 98 100 99 100 100 97 96 100 100 100 99 97 96 95 98 99 98 95
98 98 98 97 97 98 98 98 98 98 98 98 97 97 97 93 97 97 96 96 96 95 95 95 97 96 97 97 98 97 96 94 90 99 100 100 100 98 100 100 100 100 100 100 100 96 96 96 96 99 97 99 100 100
93 97 96 98 98 98 99 99 98 98 98 98 96 94 92 97 97 96 96 96 95 96 96 96 98 98 100 100 100 99 99 100 100 99 100 100 100 99 100 100 100 100 100 100 100 95 100 100 100 100 98 99 99 97
99 98 92 96 97 97 98 98 98 93 96 98 97 97 98 98 98 96 96 97 97 96 96 99 100 100 100 100 100 100 100 100 100 100 100 100 100 100 100 100 100 100 100 100 100 100 100 100 100 100 100 100 100 100
96 97 100 98 98 97 97 100 100 94 100 99 98 98 99 98 100 98 98 97 97 100 100 100 100 100 100 100 100 100 100 100 100 100 100 100 100 100 100 100 100 100 100 100 100 100 100 100 100 100 100 100 100 100
99 100 99 100 98 98 98 93 95 99 99 98 99 98 99 97 98 98 98 100 98 100 100 100 100 100 100 98 98 100 100 100 100 100 100 100 100 100 100 100 100 100 100 100 100 100 100 100 100 100 100 100 100 100

GFSWCAN_sfc_rhum_012.txt.gz
RH
92 93 94 93 92 92 92 92 92 93 95 97 98 99 98 94 92 79 94 94 78 94 91 86 76 78 82 82 85 82 78 83 90 78 85 91 95 88 84 76 89 92 95 97 96 92 59 54 60 65 66 76 81 83
93 94 93 92 92 92 92 92 95 97 99 98 98 98 99 95 94 82 85 96 94 87 87 86 84 84 81 62 86 87 70 79 84 88 95 98 98 97 92 82 79 77 69 79 68 71 54 57 67 65 69 68 82 84
93 92 92 92 92 93 94 95 99 99 99 99 98 98 99 100 93 88 97 97 85 95 88 85 88 79 74 78 69 74 88 78 82 83 97 99 83 96 95 95 88 78 70 84 75 57 64 65 61 68 75 75 80 85
93 93 93 93 93 95 97 98 98 98 98 98 98 98 98 97 94 92 97 98 82 92 96 88 80 82 75 78 76 70 82 88 92 92 98 100 86 87 94 84 89 78 75 75 82 71 73 67 76 70 78 84 86 86
94 94 95 95 96 99 99 99 98 98 97 98 99 99 97 99 92 92 98 99 97 68 93 98 85 79 84 83 84 80 75 84 93 96 96 91 97 96 98 97 97 78 69 83 80 56 58 57 58 81 85 87 88 86
96 97 97 97 99 99 99 99 98 98 98 98 99 98 98 98 90 66 71 92 97 94 92 93 92 90 91 88 91 92 93 93 93 91 97 96 85 90 99 100 76 69 69 60 53 61 66 64 80 82 85 89 89 78
97 97 96 96 96 99 99 98 98 96 97 99 98 95 93 91 93 73 69 92 98 93 96 99 99 91 92 96 99 98 98 99 94 99 100 100 99 94 98 98 57 64 68 70 73 83 82 87 83 88 85 79 56 48
96 96 97 97 96 96 99 99 97 98 97 97 95 95 95 95 96 96 99 98 98 86 92 95 99 96 94 100 100 98 100 98 98 98 99 100 99 99 99 89 84 78 76 77 77 81 80 85 64 55 52 52 56 61
96 97 97 97 97 96 99 99 97 98 96 95 89 90 90 97 100 99 96 97 96 87 98 99 90 88 94 99 100 99 99 100 98 100 100 99 100 99 97 96 90 86 88 86 89 88 74 58 53 56 61 74 88 97
97 97 98 97 97 98 99 99 96 96 92 91 91 91 99 100 92 90 89 94 96 100 99 100 98 100 96 100 100 99 100 100 98 99 99 100 100 92 84 82 80 90 91 89 90 73 70 85 92 91 92 87 88 91
95 96 97 99 99 99 99 97 94 88 89 97 99 100 98 90 94 97 99 98 96 98 99 100 100 100 96 99 100 100 100 100 100 94 100 99 98 90 81 90 89 88 83 82 82 82 83 86 93 97 95 92 91 86
92 92 93 94 96 97 95 93 91 97 99 94 97 94 92 94 99 94 99 100 98 100 100 100 100 99 100 97 98 100 99 100 97 98 100 98 87 79 91 95 93 91 88 89 88 92 92 92 92 94 91 88 92 90
90 91 91 91 90 91 90 91 92 92 90 93 92 94 89 98 97 96 98 100 100 100 100 100 100 100 99 97 100 99 100 99 99 99 99 99 95 95 96 93 95 92 95 91 92 89 79 79 85 93 94 97 96 93
90 88 89 91 90 90 90 87 85 85 89 96 100 100 99 99 99 99 99 100 100 100 100 100 100 100 100 100 100 99 99 100 99 99 96 99 99 99 99 96 91 86 85 80 77 84 91 90 94 95 96 96 97 96
91 89 85 91 89 89 88 86 85 85 92 95 93 98 98 99 99 100 100 100 100 100 100 100 100 98 100 99 99 98 98 99 98 97 99 99 100 96 79 84 94 94 93 84 76 86 88 90 92 92 93 97 99 99
90 89 95 92 90 85 87 84 89 89 94 90 95 99 99 98 100 100 100 100 100 100 100 99 99 99 99 99 98 97 98 97 98 99 100 99 99 99 99 96 91 93 92 82 88 93 94 94 94 92 95 96 96 96
87 98 93 90 89 83 85 88 93 90 84 88 99 100 99 99 100 100 100 100 99 100 99 99 98 95 98 99 100 100 98 96 100 100 100 99 98 99 98 95 92 89 87 85 94 84 94 96 99 94 91 88 91 93
98 98 88 89 88 83 91 93 92 86 94 99 99 100 99 100 100 100 100 100 99 98 98 98 92 100 99 98 99 99 99 99 100 99 99 93 85 87 84 78 76 78 81 92 93 92 94 94 95 97 96 95 96 95
94 93 89 88 86 91 93 94 91 87 99 100 99 99 100 100 99 100 100 100 100 99 97 98 96 99 98 99 99 100 98 99 99 99 95 86 85 87 84 81 83 87 91 93 96 98 98 96 98 97 95 93 94 88
88 90 88 86 83 93 90 96 91 85 87 95 99 99 99 99 99 99 100 100 99 98 96 97 96 96 98 97 98 99 95 96 98 97 97 98 94 89 95 96 98 96 98 94 89 86 85 85 86 82 82 81 85 89
90 96 90 88 95 92 96 98 98 98 99 98 99 98 99 98 98 98 99 99 98 98 97 98 100 97 98 98 99 99 99 95 96 95 91 96 99 96 95 95 94 96 92 89 89 86 88 91 87 91 94 95 93 90
97 89 97 89 90 90 95 98 98 99 96 99 99 98 99 98 98 98 98 97 96 96 98 100 99 99 99 98 98 96 93 95 96 96 94 97 98 97 95 92 91 94 90 95 96 98 97 93 93 94 95 95 88 88
89 95 96 89 87 92 92 96 95 96 81 96 99 98 98 99 99 97 98 96 97 98 98 98 97 96 96 95 94 94 88 85 92 96 97 97 93 93 91 93 93 96 97 93 94 97 96 95 93 96 94 93 93 92
83 94 87 87 87 96 94 93 94 97 98 99 100 98 98 98 98 98 97 93 98 98 96 97 93 94 96 95 92 88 88 86 91 94 94 92 93 92 90 92 94 96 95 92 95 99 97 99 97 95 95 95 93 94
88 93 91 94 92 97 94 96 96 89 93 100 97 100 98 98 97 98 97 98 98 98 98 98 97 96 96 96 94 91 92 90 89 90 92 86 93 89 91 91 95 94 94 99 98 99 98 96 95 97 95 96 97 94
90 93 94 93 95 96 99 100 100 96 97 98 97 98 98 98 99 98 97 98 97 97 98 98 97 94 92 90 91 91 85 88 85 94 88 84 87 94 97 99 99 96 96 100 100 100 99 98 98 99 97 95 98 99
98 99 96 91 97 98 98 98 97 98 97 97 98 97 97 97 97 96 96 96 96 97 95 96 93 91 90 84 80 90 94 94 94 90 88 85 87 91 98 100 100 96 97 100 100 100 100 100 99 98 97 98 100 100
98 96 99 95 99 98 98 99 99 97 98 98 98 97 97 96 96 95 96 96 96 95 94 94 92 86 89 90 92 94 97 95 95 94 94 96 98 100 100 100 99 100 100 100 100 100 100 100 98 98 99 100 100 100
98 98 98 98 97 97 98 98 98 98 98 98 98 98 95 92 97 97 95 95 96 94 95 96 97 96 96 95 96 98 96 97 92 99 100 100 100 98 100 100 100 100 100 100 100 99 100 99 100 100 100 100 100 100
94 98 98 99 100 100 96 99 98 98 99 97 96 91 90 98 97 96 96 96 95 97 98 98 98 98 100 99 100 100 100 100 100 99 100 100 100 99 100 100 100 100 100 100 100 98 100 100 100 99 98 99 100 100
99 98 97 99 99 96 99 98 98 98 98 98 97 97 98 98 98 97 97 98 98 98 98 100 100 100 100 100 100 100 100 99 100 100 100 100 100 100 100 100 100 100 100 100 100 100 100 100 100 100 100 100 100 100
97 100 100 98 97 97 99 100 100 98 98 98 99 100 99 97 100 98 99 97 96 99 100 100 100 100 100 100 100 100 100 100 100 100 100 100 100 100 100 100 100 100 100 100 100 100 100 100 100 100 100 100 100 100
98 100 99 100 100 100 100 96 98 100 97 99 99 100 100 98 98 98 98 99 96 98 99 100 100 100 100 100 100 100 100 100 100 100 100 100 100 100 100 100 100 100 100 100 100 100 100 100 100 100 100 100 100 100

GFSWCAN_sfc_rhum_015.txt.gz
RH
93 94 94 93 92 93 93 93 94 95 97 97 97 96 94 90 86 86 95 93 76 90 90 84 71 75 76 76 83 81 76 81 85 87 91 81 92 76 70 63 85 74 85 86 85 78 65 45 51 66 60 61 60 67
94 93 92 93 93 92 92 94 96 99 98 97 98 99 93 85 85 90 92 96 86 85 86 86 82 81 78 62 80 85 70 75 77 86 89 96 100 98 85 78 70 70 69 72 62 66 50 48 61 55 58 57 57 67
92 92 93 93 93 94 96 99 98 98 97 97 97 99 95 84 87 87 95 97 86 95 85 83 86 78 77 81 70 74 79 74 73 74 94 97 95 93 95 86 80 69 62 74 73 52 56 54 51 53 52 59 57 61
92 93 93 94 96 99 98 98 98 97 97 97 98 98 99 92 93 86 92 96 87 91 100 89 77 83 79 81 73 72 78 84 85 79 97 99 96 80 91 78 87 69 67 70 73 63 58 52 57 56 56 64 68 67
94 94 96 98 99 98 98 98 98 97 98 99 99 98 93 93 91 92 98 98 96 74 98 97 82 79 83 81 77 74 72 79 86 93 100 96 92 95 94 93 88 70 65 77 77 50 53 50 44 54 64 66 69 75
96 98 98 98 98 98 97 97 99 99 99 99 99 95 95 96 91 84 84 91 93 91 92 99 88 89 88 86 88 92 88 88 86 82 96 86 84 86 100 91 65 62 59 54 51 54 55 56 54 59 65 70 77 77
97 98 99 98 98 97 98 99 99 98 97 96 96 95 96 94 94 75 71 90 92 90 96 99 99 89 91 95 96 95 93 95 90 98 99 97 98 85 99 90 72 76 69 65 64 69 71 70 73 76 66 53 54 51
97 97 97 98 98 98 99 99 99 97 95 95 95 94 94 95 95 95 98 96 95 81 88 95 98 98 90 100 99 97 100 97 98 97 98 99 98 98 99 88 82 75 75 74 79 77 76 59 52 53 52 60 74 87
98 97 98 98 99 99 98 99 98 94 92 90 92 92 90 96 100 98 95 94 92 82 94 94 93 95 91 100 99 99 96 100 94 100 100 95 100 98 92 85 84 85 89 88 68 56 59 65 69 71 76 91 95 97
98 98 98 99 99 99 99 98 94 92 91 88 88 89 100 100 92 87 85 90 95 98 98 100 98 100 94 100 100 100 100 100 100 98 98 100 100 80 85 86 89 86 83 81 77 88 91 92 91 95 96 91 86 82
97 98 99 99 99 99 95 94 94 88 87 96 100 100 98 89 88 94 98 98 95 98 98 100 100 100 95 99 100 100 100 100 99 92 98 100 98 79 89 93 87 87 83 82 82 86 92 96 96 97 96 93 93 90
92 93 94 95 96 96 95 94 92 97 99 95 96 93 90 91 93 93 99 100 97 98 100 100 100 99 100 95 98 100 100 100 97 96 100 99 89 91 96 97 92 84 82 85 83 88 88 86 88 93 90 90 91 87
93 93 92 92 93 90 88 87 90 90 87 90 90 95 88 98 98 90 100 100 100 100 100 100 100 100 99 97 100 100 100 100 98 100 98 98 98 99 99 97 96 81 82 78 75 72 70 72 80 91 91 96 95 88
87 88 92 91 92 91 89 87 85 85 88 95 96 100 96 100 100 100 100 100 100 100 100 100 100 100 100 100 100 100 100 99 100 100 98 99 99 100 99 98 81 70 81 78 72 80 89 92 93 94 95 94 96 93
89 85 85 93 89 90 85 84 83 84 92 95 92 99 99 100 99 100 100 100 100 99 100 100 100 97 100 100 99 98 97 96 93 92 99 99 99 97 97 98 78 82 95 85 74 85 90 91 93 90 93 94 96 98
87 85 89 92 90 85 82 83 87 87 92 96 99 99 100 99 100 100 100 100 99 100 100 100 100 100 98 98 97 96 94 94 93 99 99 98 98 100 99 97 90 88 87 83 88 89 90 92 95 94 92 92 94 94
84 96 88 90 86 82 82 86 90 85 89 92 99 100 100 100 100 100 100 100 99 100 100 99 98 97 97 96 96 96 96 92 99 99 98 98 97 98 98 98 98 87 84 84 86 87 90 93 97 93 95 90 94 94
98 96 87 86 83 82 92 90 89 83 98 99 98 100 100 100 100 100 100 100 99 98 96 98 91 98 98 98 96 94 98 100 99 99 98 98 97 94 93 84 78 82 88 92 94 94 95 95 94 92 86 78 78 78
95 92 86 84 82 90 93 94 88 94 99 99 99 99 99 99 98 99 100 100 98 95 95 95 96 97 97 94 97 97 96 96 98 97 91 88 85 85 84 85 87 91 95 91 87 86 82 82 82 75 74 76 84 82
83 85 84 83 79 91 90 96 89 83 91 96 98 98 98 98 99 99 100 100 99 97 94 96 95 91 94 94 94 95 91 94 94 93 92 91 89 89 91 90 93 91 83 80 79 78 76 75 72 75 81 80 89 90
85 93 84 88 94 93 91 96 97 98 97 97 99 97 98 96 96 97 99 98 96 96 89 96 100 98 98 96 94 96 95 90 86 91 90 96 91 85 84 86 83 81 82 85 87 83 86 85 80 80 90 92 91 89
98 86 94 86 90 92 95 98 97 98 94 99 98 96 97 97 97 98 98 98 98 97 97 98 96 99 97 96 96 93 93 91 90 91 92 93 92 87 84 81 80 91 88 90 88 93 89 81 83 86 91 92 88 87
90 86 90 87 85 90 95 94 94 97 86 96 95 98 98 98 98 94 96 94 97 96 97 96 94 96 94 96 91 89 88 87 91 94 92 90 86 90 85 83 84 89 87 82 80 85 89 91 86 93 91 90 92 91
80 88 95 96 92 98 91 90 84 87 92 96 99 100 97 99 96 98 97 93 96 94 95 96 93 93 93 92 88 88 91 90 90 92 88 85 87 86 83 83 84 85 84 80 84 90 89 93 95 90 93 95 94 94
85 96 90 98 96 97 94 95 92 84 88 98 94 98 95 97 98 99 98 96 95 96 96 96 95 94 95 95 93 92 93 90 89 87 90 80 84 78 76 72 85 84 84 93 95 97 96 94 94 95 94 96 96 94
96 94 90 92 94 94 99 100 100 92 94 99 99 96 97 96 96 96 92 96 95 96 97 97 96 94 91 91 91 91 89 84 77 88 81 73 75 85 85 86 85 83 88 98 99 99 98 96 96 96 95 92 96 96
100 97 95 95 94 93 98 98 95 96 98 97 96 97 97 96 98 94 93 93 94 96 93 94 94 93 92 90 88 88 88 87 86 82 80 77 78 78 86 92 93 87 93 96 100 100 100 100 99 96 96 92 96 98
91 91 98 94 99 97 99 98 98 98 98 96 96 97 96 94 93 94 92 94 94 92 92 92 91 90 91 91 92 92 92 90 92 90 88 88 89 93 94 93 94 100 97 98 99 100 99 99 97 97 98 100 99 96
98 98 96 99 98 97 98 98 98 98 97 98 97 98 97 91 95 95 92 92 94 93 95 94 95 95 94 92 95 96 94 93 84 93 97 97 97 92 93 96 97 97 100 99 99 98 98 96 98 95 94 96 95 95
95 98 97 100 99 97 96 97 98 98 96 97 95 89 89 96 96 94 94 94 94 97 96 96 97 97 98 96 100 97 100 100 98 96 99 100 98 96 100 100 100 100 100 98 97 95 100 98 96 93 94 94 95 95
99 98 97 98 98 98 99 98 98 98 98 98 96 96 96 97 97 95 95 96 97 96 95 100 100 100 99 100 100 99 97 97 100 100 100 100 99 100 100 100 100 100 100 99 98 100 100 100 100 98 96 96 97 97
98 100 100 97 97 97 97 100 100 100 97 96 98 98 98 96 100 96 97 94 92 93 100 100 100 100 100 100 100 100 100 100 100 100 100 100 100 100 100 100 100 100 100 100 99 99 100 100 99 99 100 99 99 99
99 100 97 99 99 97 99 95 98 100 95 96 98 99 98 97 98 97 96 97 94 93 94 99 100 100 100 100 98 98 98 99 100 100 100 100 100 100 100 100 100 100 100 100 100 100 99 100 97 98 99 100 98 97

GFSWCAN_sfc_rhum_021.txt.gz
RH
78 79 80 82 83 85 86 88 93 93 97 90 92 96 95 92 92 92 62 61 33 31 39 38 26 30 28 32 60 52 52 56 63 78 89 62 80 52 45 32 53 54 67 84 68 96 78 21 28 40 41 30 27 30
82 83 88 91 88 90 92 94 95 96 97 96 96 95 94 93 96 92 77 53 46 40 58 51 56 51 41 28 34 50 35 47 47 56 75 80 96 96 55 62 32 50 42 50 39 43 29 24 25 23 28 34 33 33
88 87 89 93 91 93 97 98 96 97 97 96 95 94 94 94 94 90 69 56 47 64 58 51 56 53 47 52 52 42 45 36 43 48 75 87 100 73 96 59 47 35 33 46 43 23 22 23 23 25 26 30 29 29
93 93 93 97 98 98 98 98 97 95 95 95 95 95 95 94 92 92 56 56 45 64 99 72 51 57 52 48 46 49 44 50 49 45 84 97 96 48 77 51 53 38 36 36 39 29 24 24 27 32 34 36 36 35
98 98 98 98 98 98 98 98 98 98 97 96 94 94 95 93 88 74 57 61 61 47 91 80 58 56 47 46 45 45 49 49 50 76 96 87 62 67 72 63 58 34 32 55 54 38 46 36 37 47 46 49 48 49
98 98 98 97 97 97 97 98 98 97 98 97 97 96 94 91 86 56 72 61 56 56 74 91 63 62 53 46 46 45 45 44 41 59 87 51 52 58 94 61 44 44 46 46 46 47 48 47 46 44 49 47 45 45
98 98 98 98 99 99 99 99 99 99 98 96 96 93 90 86 60 57 50 76 83 59 83 94 88 66 60 54 63 56 56 56 48 62 92 70 60 54 95 66 55 52 48 49 49 52 54 49 51 48 52 55 65 65
98 98 98 96 95 96 98 99 98 97 94 92 90 87 87 88 95 73 73 87 85 65 58 92 98 93 63 90 92 66 84 63 72 77 80 85 71 79 77 60 54 52 50 56 49 47 48 47 50 56 60 71 71 72
98 98 98 92 93 92 91 95 94 91 90 90 90 88 71 79 84 86 93 84 76 68 74 93 100 99 67 82 82 86 70 98 71 98 85 75 97 88 71 64 60 62 63 60 51 48 52 66 71 67 64 67 70 70
98 98 95 93 94 92 91 91 92 93 93 94 57 57 88 93 91 87 74 84 72 72 70 100 78 99 68 100 99 91 94 98 98 95 76 97 87 68 64 64 62 59 54 57 72 74 78 76 72 70 66 56 50 58
92 92 93 88 87 89 93 91 91 90 91 67 82 93 82 92 89 83 86 82 66 89 80 87 90 93 78 91 99 97 99 97 100 88 92 100 94 73 71 71 70 63 58 62 63 68 62 59 59 58 61 68 67 64
89 88 88 89 87 86 86 89 88 80 85 85 87 78 78 79 76 95 99 94 85 92 97 97 96 84 94 72 85 92 98 95 96 75 98 89 88 83 86 86 76 65 62 61 59 58 58 57 56 60 66 73 91 89
90 90 90 89 87 88 85 85 87 87 83 69 77 95 73 95 100 100 100 99 98 100 99 99 100 96 87 79 98 90 100 100 73 98 84 90 88 91 86 72 64 59 59 58 52 48 50 60 78 92 87 100 100 78
89 88 89 90 88 86 87 86 83 77 67 84 100 100 100 100 100 100 100 100 100 100 100 100 100 99 100 100 100 100 100 96 100 100 94 98 97 96 81 70 61 58 77 57 62 70 87 97 100 100 100 100 100 98
85 87 87 89 88 85 83 84 78 76 80 87 88 100 100 100 100 100 100 100 100 98 100 98 96 83 100 100 100 100 100 99 95 94 100 98 98 97 86 62 56 71 95 71 69 84 100 96 100 89 93 88 87 89
74 72 78 89 86 83 78 73 68 69 86 90 98 100 100 100 100 100 100 100 98 100 100 96 100 100 100 100 100 100 96 91 100 99 100 97 98 99 89 64 65 66 67 67 70 79 89 97 94 81 79 80 90 86
69 69 86 86 80 74 74 78 83 85 98 100 100 100 100 100 100 100 100 100 98 100 100 100 100 100 99 100 100 98 100 100 100 100 97 99 97 97 76 81 86 76 70 71 74 77 81 84 81 70 60 53 57 63
68 67 84 82 68 64 67 65 80 75 93 96 98 100 100 100 100 100 99 94 97 98 99 100 98 100 100 100 100 99 99 100 98 90 82 92 98 98 94 86 67 71 78 80 76 72 73 70 55 52 50 48 49 49
70 74 84 83 66 66 71 73 66 88 99 100 100 100 100 100 95 97 100 93 79 76 83 83 98 96 100 98 100 100 100 100 99 99 98 98 98 93 79 69 73 76 73 68 63 57 58 55 54 51 53 50 61 57
75 77 81 76 64 68 82 77 56 71 83 91 91 91 86 89 98 100 100 93 74 71 87 92 95 97 96 93 96 97 92 95 96 97 96 99 97 91 82 77 73 69 63 59 58 62 53 53 51 52 62 60 71 73
62 63 71 62 66 66 77 71 68 70 64 72 83 78 77 92 98 100 100 80 92 90 89 96 100 100 96 91 88 89 98 94 93 94 86 87 81 79 78 76 72 70 72 70 70 67 69 64 58 58 75 79 78 76
62 74 74 69 73 85 75 74 65 60 64 71 69 68 86 99 99 98 83 90 88 91 95 95 91 94 82 88 91 91 97 100 99 96 96 94 91 88 89 88 84 88 84 76 71 78 73 62 68 70 77 80 70 70
70 66 78 92 93 94 91 64 89 73 84 80 78 75 87 91 86 69 88 84 85 76 82 80 81 84 82 86 85 89 91 88 86 86 85 83 82 91 88 88 88 89 79 64 59 66 73 70 69 79 76 75 77 77
66 92 98 96 89 96 92 86 65 68 75 77 75 85 84 87 75 80 85 76 80 73 74 80 81 82 81 86 81 84 87 88 88 91 90 87 87 88 86 84 75 70 70 64 68 74 72 79 74 74 77 78 76 78
83 94 96 89 90 87 88 90 84 76 80 83 84 85 85 88 86 79 79 81 85 88 86 86 78 82 87 86 83 86 91 86 86 85 89 82 85 81 70 64 68 66 68 79 80 80 79 78 78 78 76 77 76 75
88 94 86 87 88 87 87 86 87 85 82 80 87 82 87 87 77 82 75 88 86 90 92 93 93 83 77 76 78 78 79 77 75 82 70 61 64 74 73 71 69 77 70 79 83 82 78 76 78 76 77 72 71 76
87 89 80 76 80 78 86 88 82 78 80 84 82 82 86 76 80 83 83 82 84 88 81 83 79 78 77 75 75 76 72 69 72 65 61 60 62 65 75 81 79 75 72 74 79 80 82 81 79 78 78 76 76 78
80 84 89 89 83 81 86 82 80 80 83 76 80 81 80 88 88 82 79 82 82 77 78 78 75 75 78 78 82 79 73 72 77 70 68 68 66 71 72 74 74 71 77 77 80 80 80 81 81 80 79 81 80 78
86 92 84 92 85 84 83 81 81 80 76 80 91 84 84 77 84 86 81 80 82 86 87 86 86 84 81 76 79 79 78 78 73 68 66 75 76 79 73 74 75 75 78 79 70 73 74 80 81 82 81 83 81 80
90 91 82 86 84 82 89 93 94 90 79 83 77 71 72 82 85 82 84 85 85 89 89 88 86 84 83 79 80 79 83 82 82 83 82 81 82 79 78 78 79 80 80 81 80 76 72 76 76 78 79 78 80 82
84 93 84 81 81 87 94 95 95 87 88 89 89 89 86 87 86 82 82 85 85 84 84 81 81 80 79 80 80 79 79 82 79 76 80 82 79 79 79 80 81 82 82 81 81 81 80 81 80 80 78 78 78 80
90 93 85 78 85 91 90 88 92 92 89 88 88 87 88 86 84 85 86 89 85 83 87 77 79 82 79 78 80 80 90 82 77 78 78 81 82 80 79 79 80 80 81 81 81 80 80 80 82 81 81 78 77 78
86 86 77 81 81 79 86 87 79 82 83 83 85 84 86 88 87 87 80 83 86 85 83 83 82 81 80 79 79 80 69 69 71 77 79 81 88 88 88 83 80 80 79 81 81 81 79 79 81 79 77 78 79 79

GFSWCAN_sfc_rhum_024.txt.gz
RH
76 77 77 76 78 79 80 83 85 86 86 86 88 90 91 89 88 95 92 89 97 89 38 34 26 31 39 45 70 57 56 55 77 87 95 78 92 65 56 35 62 69 84 95 86 100 89 21 26 50 49 41 35 34
77 78 78 79 80 82 84 86 86 87 88 86 90 90 90 93 92 89 96 82 85 91 61 58 55 47 40 32 56 58 46 51 58 64 81 88 99 97 73 75 27 58 53 70 57 67 36 25 30 26 31 36 36 38
80 80 80 82 84 84 85 86 87 92 92 92 93 93 92 94 93 91 95 92 92 77 63 49 55 54 49 53 54 53 49 39 47 51 84 92 100 89 98 80 57 34 32 59 56 25 23 23 23 24 28 37 34 35
84 85 88 87 88 90 92 90 91 94 95 92 91 91 93 95 93 94 96 90 80 66 99 78 49 55 48 45 47 50 46 56 58 60 93 99 100 56 93 64 77 44 35 38 42 32 28 26 37 43 44 43 46 45
88 89 90 92 90 92 93 94 92 97 97 96 94 94 93 93 93 95 95 86 66 49 88 83 58 51 45 47 47 47 54 57 62 84 100 96 75 83 87 76 77 35 37 68 76 46 49 49 48 46 49 48 46 46
93 94 94 95 96 92 94 97 96 94 96 96 96 93 94 95 97 94 95 60 64 47 81 94 64 57 46 46 47 51 51 53 52 71 91 62 52 70 98 81 38 44 42 45 48 48 49 50 47 48 54 53 54 58
98 99 99 98 98 98 98 98 98 97 96 95 95 94 95 95 89 88 69 82 90 66 82 100 93 65 51 55 59 56 49 53 51 68 89 77 64 64 99 83 49 46 45 47 47 51 57 49 57 55 62 62 64 62
98 98 99 99 98 98 98 98 96 95 94 95 95 95 95 95 94 82 72 80 88 55 79 98 100 94 60 92 92 69 77 67 71 76 80 87 76 92 89 56 50 50 47 52 48 47 50 53 58 64 59 59 63 64
95 95 96 98 98 98 98 98 98 97 96 94 93 93 84 77 86 79 88 90 79 77 99 99 100 100 66 86 90 88 69 99 70 99 88 77 96 90 62 57 55 58 58 55 48 53 60 65 63 62 59 58 62 66
91 88 91 93 94 97 96 96 96 95 93 91 78 56 96 96 93 89 70 70 86 96 81 100 90 100 77 99 100 95 97 96 97 96 72 97 90 63 59 58 57 55 54 52 73 81 75 72 67 63 59 66 65 57
90 91 85 85 88 93 93 94 92 90 88 77 88 98 88 93 76 78 93 88 85 100 83 85 92 97 80 96 100 98 99 98 98 90 94 94 89 74 63 66 62 56 58 59 62 66 64 62 63 72 64 66 75 78
87 88 90 86 83 82 87 92 91 74 77 81 83 84 91 85 91 96 100 96 98 99 98 98 93 83 93 74 89 93 98 96 98 84 100 91 84 71 73 75 65 60 60 60 57 61 63 58 59 72 79 89 95 97
87 86 88 90 88 84 86 89 88 83 86 77 87 98 91 99 100 100 100 100 100 99 99 98 100 97 90 76 97 92 100 100 80 100 82 88 81 81 78 69 63 61 64 62 56 56 63 78 84 90 97 98 96 84
88 85 86 88 90 89 85 84 82 74 68 91 100 100 100 100 100 100 100 100 100 100 100 100 100 99 100 100 100 100 100 89 100 98 91 96 92 91 78 70 65 62 77 70 69 83 94 97 97 93 92 97 94 92
79 80 78 84 84 84 85 83 79 75 86 95 97 100 100 100 100 100 100 100 100 98 100 99 99 89 100 100 100 100 100 100 91 91 100 98 95 90 79 69 71 83 95 81 82 96 97 92 91 87 90 87 88 92
73 72 77 87 80 81 80 82 87 90 96 98 99 100 100 100 100 100 100 100 98 100 100 99 100 100 100 100 100 100 96 94 100 100 99 98 98 97 83 72 76 74 80 80 87 90 89 90 88 80 80 86 93 90
66 66 88 86 81 71 77 81 89 86 99 100 100 100 100 100 100 100 100 100 98 100 100 100 100 100 95 100 99 100 100 100 100 100 99 98 98 98 78 87 85 82 79 81 83 79 81 84 87 78 65 56 61 75
64 60 86 85 68 60 61 78 90 84 98 100 99 100 100 100 100 100 100 99 100 100 100 100 99 100 100 100 100 100 100 100 100 98 98 98 98 93 80 82 76 79 81 81 79 79 80 82 63 59 54 52 56 58
70 71 83 80 63 64 74 75 71 94 100 100 100 100 100 100 95 98 100 97 87 87 96 100 98 96 97 98 99 100 100 100 99 99 99 99 98 98 96 85 87 84 79 76 73 68 60 58 58 56 58 57 67 65
70 74 79 72 61 73 76 77 66 82 92 96 96 94 88 89 98 100 100 93 82 82 88 90 96 96 97 97 98 99 99 99 98 98 99 99 95 90 83 81 76 74 68 64 65 69 60 62 56 59 68 66 76 78
57 60 68 60 67 65 76 68 70 70 71 79 80 84 84 95 99 100 100 80 85 92 92 95 99 99 94 94 93 97 99 98 99 100 99 99 99 97 96 99 99 98 90 86 81 80 76 70 65 64 81 86 86 83
57 71 75 74 76 84 74 78 65 61 67 73 72 70 86 98 99 98 89 84 82 91 94 92 91 85 86 89 88 94 96 93 95 95 97 96 94 93 94 95 90 94 93 93 90 89 80 68 73 75 82 86 79 79
68 68 81 92 94 95 86 63 88 66 79 73 72 73 81 84 86 72 86 82 90 86 90 90 79 84 87 85 82 84 88 85 88 90 92 92 91 94 92 91 93 95 93 88 70 72 79 74 77 83 80 81 84 85
70 94 96 94 90 92 96 82 61 65 76 76 70 82 84 88 75 74 85 82 86 78 81 78 87 92 76 78 80 84 88 82 88 91 93 91 89 89 89 90 89 83 76 69 73 78 78 84 79 77 84 83 83 85
87 92 95 85 92 84 80 78 77 70 78 82 85 85 86 86 82 81 86 88 86 91 86 90 77 83 91 90 85 86 87 78 84 86 91 90 90 84 74 70 72 71 72 83 83 82 84 84 84 83 79 82 82 82
88 88 82 80 81 82 76 79 78 78 74 80 81 79 87 85 80 91 85 92 90 93 94 94 93 85 79 77 80 82 80 80 74 80 68 64 69 78 77 76 79 86 75 82 84 82 80 81 82 80 82 77 80 84
84 85 81 78 79 79 84 80 80 81 85 88 88 86 81 83 88 88 84 85 87 91 84 84 83 82 83 82 79 74 67 67 70 64 62 63 66 68 78 85 85 81 75 76 80 82 84 84 85 84 85 84 85 87
85 87 84 90 84 82 78 76 82 91 90 82 86 88 88 89 91 88 88 85 85 78 78 78 75 77 81 80 79 77 75 75 80 73 74 71 69 74 75 76 80 75 78 83 80 83 82 83 85 88 88 89 88 86
88 87 87 93 77 79 89 91 89 88 77 85 92 88 88 81 89 91 81 80 87 90 90 89 89 87 84 77 79 79 79 81 79 78 74 79 80 88 77 76 76 77 79 81 79 80 77 83 83 85 82 82 84 87
84 91 77 76 79 86 94 92 95 90 80 82 77 72 77 86 89 86 85 85 86 91 90 90 88 83 85 85 80 85 84 83 84 85 86 86 85 81 82 82 82 82 84 83 83 78 79 80 80 83 87 86 84 87
76 90 74 73 87 92 89 89 91 84 87 90 89 88 87 88 89 83 85 91 85 88 90 87 82 81 81 83 84 84 87 86 82 75 78 81 80 82 85 85 83 84 82 83 84 83 85 84 82 84 84 84 83 84
80 83 80 76 91 86 81 89 88 94 92 90 89 86 89 91 88 87 88 92 88 86 87 84 85 86 81 81 81 80 88 80 78 82 76 83 82 85 86 85 86 87 86 84 84 84 84 84 84 83 85 83 85 84
75 74 73 73 73 82 86 81 71 83 82 85 84 84 87 88 89 89 81 83 87 88 89 88 87 86 80 78 75 78 70 70 74 81 86 90 90 85 84 85 87 88 88 87 86 85 84 83 85 84 85 85 84 87

GFSWCAN_sfc_rhum_027.txt.gz
RH
76 76 79 79 78 78 81 85 85 89 87 86 82 83 86 84 86 95 94 88 98 98 85 60 40 51 61 71 85 80 86 83 95 92 92 91 97 77 77 67 77 81 94 96 97 99 85 37 37 43 65 52 46 46
80 81 81 80 78 77 78 82 81 83 82 83 84 86 85 85 89 89 96 77 91 99 96 83 69 76 54 58 75 78 71 77 83 91 98 99 100 98 80 82 54 77 79 86 76 84 61 40 39 43 43 45 52 56
82 82 80 80 82 82 83 84 88 89 89 90 90 89 87 87 88 86 91 93 98 99 93 90 82 71 61 62 59 75 77 64 70 87 98 100 97 96 95 91 73 55 48 78 60 46 43 40 52 55 56 62 62 58
80 80 81 83 84 85 86 87 89 90 90 90 89 88 88 88 91 90 95 93 99 99 100 93 63 68 59 59 62 61 66 76 82 94 99 100 100 86 95 78 85 67 50 54 59 49 66 65 65 63 58 58 55 52
82 82 83 84 86 87 88 89 90 90 91 90 91 91 90 94 95 96 98 96 98 99 100 97 73 64 58 63 63 68 72 80 93 92 100 96 96 90 97 90 88 54 56 76 86 66 72 71 63 59 62 64 62 68
88 89 90 90 91 91 91 91 92 93 93 92 92 92 93 95 96 97 98 96 95 98 100 100 85 74 65 64 64 69 76 79 86 96 99 90 75 87 96 94 64 61 63 65 72 64 65 65 69 67 74 74 72 75
89 89 89 91 91 90 91 91 92 91 92 93 92 91 94 97 95 94 96 99 98 97 98 100 98 84 72 80 93 83 75 92 92 95 99 91 85 95 99 93 66 61 62 61 61 63 72 69 81 71 70 71 70 69
92 92 93 92 90 94 91 89 92 96 96 96 93 95 97 96 99 97 93 96 98 91 93 99 100 98 76 99 99 95 97 96 95 96 96 98 95 98 94 74 64 60 59 62 66 65 73 71 68 68 67 68 72 75
97 96 97 97 96 94 96 97 95 95 95 95 97 97 96 99 99 98 91 93 94 90 99 100 100 100 84 97 98 96 94 100 95 100 98 93 100 96 79 72 71 71 70 69 69 67 70 73 69 66 66 72 81 85
98 98 98 98 98 98 97 97 96 96 96 95 93 98 100 99 94 95 88 90 94 96 97 100 98 100 88 100 100 99 100 98 100 98 92 98 99 80 74 74 72 70 66 71 85 88 81 74 72 73 75 71 68 69
91 94 97 98 98 98 96 96 95 95 96 98 99 100 98 92 89 94 94 94 95 98 98 98 98 100 92 99 100 100 100 100 100 98 97 100 99 88 81 79 79 73 66 68 70 73 69 71 74 75 82 84 92 97
92 91 91 94 96 97 97 95 95 94 96 92 92 96 94 92 96 97 98 98 98 99 100 100 100 95 99 94 99 99 96 98 95 91 99 99 95 83 81 78 73 71 70 69 67 68 69 68 72 84 93 96 98 95
92 94 91 89 90 89 92 93 93 82 88 85 89 98 94 99 99 94 99 97 98 100 100 100 100 100 97 93 100 99 99 99 95 93 94 98 88 85 80 75 72 67 67 71 77 78 81 88 93 97 98 97 95 93
82 86 91 93 92 91 88 86 89 83 82 97 99 98 99 99 99 100 100 100 100 100 100 100 100 100 100 100 100 92 99 97 100 98 90 99 95 92 83 76 71 72 81 86 91 97 97 96 98 97 96 94 92 95
76 79 80 88 89 88 85 85 80 82 93 98 94 99 99 100 100 100 100 100 100 100 100 100 100 96 100 99 100 99 99 96 95 98 100 99 96 90 81 78 80 86 90 93 94 97 97 94 94 94 95 94 93 94
73 72 78 88 86 85 85 86 92 92 98 97 97 98 100 99 99 99 100 100 99 100 100 100 99 99 99 100 98 97 96 99 100 100 100 98 97 92 83 83 86 85 89 95 94 92 91 93 90 87 93 92 93 90
74 84 87 85 78 75 83 90 93 97 100 98 99 100 100 100 100 100 100 100 99 100 100 100 99 99 100 99 99 99 99 99 100 100 100 99 98 97 98 93 90 92 94 94 93 91 90 91 88 88 77 81 83 82
86 79 84 83 74 75 82 88 94 98 99 99 99 100 100 100 100 100 100 100 100 100 100 99 100 99 98 98 98 99 99 100 100 99 99 98 98 98 97 97 87 88 92 90 89 89 90 91 76 76 71 72 78 76
80 80 79 76 75 86 88 88 87 98 99 100 100 100 100 100 99 99 99 97 99 99 98 99 95 97 98 98 98 99 99 100 100 99 99 99 99 98 97 97 98 97 91 88 88 77 73 73 77 75 80 84 90 92
69 74 81 70 74 89 85 90 85 94 99 99 100 98 99 99 100 100 86 85 86 92 92 96 97 97 98 98 98 99 98 99 99 99 99 99 99 98 98 98 98 84 77 82 82 78 73 75 75 80 88 91 95 97
78 77 81 84 90 85 93 95 91 95 98 98 97 96 98 97 92 91 93 81 81 98 96 97 98 98 97 96 95 97 95 95 97 99 100 98 98 97 97 98 97 97 95 96 95 95 95 93 85 85 97 98 96 97
80 80 97 91 92 87 91 87 93 92 91 93 94 95 97 97 98 96 93 90 95 97 98 98 95 89 88 91 93 95 96 94 95 94 95 94 95 94 95 96 93 95 95 96 95 96 96 86 87 94 97 96 95 97
81 89 94 89 86 87 93 93 88 80 90 89 91 85 94 95 98 94 96 94 96 97 97 97 89 86 87 86 87 88 87 87 91 92 94 94 94 95 94 94 95 96 95 95 94 95 94 88 89 95 95 94 97 98
84 94 98 98 90 92 91 88 91 91 91 91 90 90 90 90 94 93 96 94 95 89 94 94 96 88 83 84 90 92 93 86 90 94 95 92 93 94 93 94 93 93 93 87 88 94 95 96 94 95 97 97 99 98
82 93 89 90 91 88 81 79 85 88 94 91 92 95 91 96 94 96 97 97 96 96 95 95 88 91 96 96 95 93 93 91 90 90 91 95 96 93 87 86 88 87 89 95 96 97 98 98 98 97 96 100 97 99
87 91 84 83 89 87 85 87 93 94 93 94 98 96 97 94 94 98 96 97 97 98 97 96 97 94 92 89 92 92 90 90 79 87 83 82 88 94 95 97 98 97 94 98 99 100 98 98 100 99 100 95 98 98
83 92 94 91 96 94 94 93 92 93 97 98 98 95 96 97 99 97 98 97 98 99 96 96 95 94 95 95 94 94 91 87 88 82 85 82 85 88 95 98 100 96 97 97 99 100 100 100 100 100 100 98 99 100
97 96 97 93 92 87 93 95 96 98 97 92 97 98 98 98 99 97 97 98 98 96 95 92 89 90 92 92 90 92 93 92 94 94 92 94 95 96 95 98 95 92 97 97 97 98 100 100 100 100 100 100 100 100
96 95 94 91 83 90 97 98 98 97 92 96 97 97 97 96 96 97 97 95 94 93 96 96 97 97 97 95 94 94 92 93 92 95 98 100 99 98 96 98 97 98 99 100 98 92 93 96 99 100 100 99 97 99
83 94 84 84 88 96 100 98 97 98 96 96 95 86 90 97 96 93 93 94 96 98 97 95 93 92 96 95 98 98 98 98 97 99 100 100 100 97 99 98 99 100 100 100 100 98 98 98 100 99 99 99 99 100
88 94 88 92 98 99 98 98 91 93 94 98 94 96 96 98 99 93 94 97 94 94 95 96 95 96 97 99 100 100 100 99 99 96 96 100 100 100 97 95 98 100 100 99 99 100 100 100 100 100 100 100 100 100
80 81 94 96 99 93 92 89 92 98 98 98 99 98 100 98 100 99 95 93 93 94 96 96 98 99 99 98 99 100 96 99 98 97 95 100 100 100 100 100 100 100 97 94 97 99 98 98 100 99 100 100 98 98
90 89 90 91 94 97 95 95 93 98 96 97 99 98 99 97 99 99 98 97 98 100 100 100 98 98 98 95 94 96 93 95 93 97 94 94 98 100 100 100 100 100 100 100 100 100 100 98 97 98 100 100 100 100

GFSWCAN_sfc_rhum_030.txt.gz
RH
78 77 78 80 81 81 81 81 80 81 80 82 81 83 86 87 84 87 99 98 96 97 91 91 49 48 58 64 79 83 85 84 98 90 92 92 87 81 82 71 75 71 89 96 96 93 70 50 40 44 53 63 51 50
80 80 82 83 83 83 82 82 84 85 85 85 83 85 88 85 83 81 98 94 91 98 96 86 90 86 37 55 81 86 68 75 86 92 98 97 92 95 81 90 68 64 72 81 75 78 58 47 50 56 53 58 66 73
82 82 80 80 82 83 85 87 91 85 85 86 83 87 87 84 88 80 97 97 95 97 97 96 88 73 68 56 56 77 86 70 87 84 98 99 79 94 90 87 75 62 65 79 69 61 65 73 72 70 71 70 62 64
83 83 83 81 80 78 87 87 89 90 88 86 85 89 87 85 90 81 96 97 97 98 100 93 77 78 69 61 55 60 64 84 90 90 99 100 91 81 92 71 80 67 56 62 71 82 72 73 70 67 63 66 66 63
84 84 84 84 84 81 83 86 84 85 85 83 87 90 88 88 88 90 96 95 93 100 100 98 89 74 73 73 68 61 72 81 89 84 95 91 96 92 98 88 89 60 60 74 77 63 74 78 73 70 71 75 74 77
84 86 87 88 89 89 90 91 92 92 90 91 91 90 90 89 89 94 98 96 95 98 98 99 93 90 82 85 84 73 76 90 93 90 100 93 84 83 89 92 67 70 70 65 78 72 74 78 76 73 81 80 80 83
87 87 89 90 91 92 92 94 93 93 94 93 92 90 89 89 94 92 92 96 91 95 99 100 99 91 92 92 98 96 94 98 96 97 99 92 90 91 97 90 73 74 72 68 68 71 84 78 86 76 76 77 77 78
90 91 92 92 92 92 93 94 93 93 93 93 91 93 96 95 96 92 96 99 96 97 99 100 99 98 85 100 99 98 99 98 98 98 98 97 98 98 91 80 74 70 75 76 77 75 78 75 74 75 71 72 79 84
89 88 89 90 90 89 93 92 93 92 95 93 94 96 98 99 99 96 97 99 98 99 100 100 100 100 91 99 100 97 97 100 98 99 100 95 100 97 87 78 72 72 76 85 77 75 75 80 79 75 74 80 85 86
92 92 92 88 88 88 90 90 92 93 94 95 95 99 99 99 98 95 100 100 100 99 97 100 99 100 93 100 100 100 100 100 100 98 97 99 99 87 85 82 80 77 74 75 88 91 84 79 76 81 83 80 78 84
96 95 95 93 93 93 92 92 93 96 97 98 100 100 99 95 96 100 98 96 96 99 99 100 99 100 96 98 100 99 100 99 97 98 95 99 99 93 91 93 88 76 77 79 73 76 73 75 78 81 87 91 95 93
98 97 96 96 96 96 96 95 94 94 98 96 97 98 99 99 98 94 99 97 97 99 99 100 100 98 99 93 99 98 98 96 98 93 96 98 97 95 90 88 82 79 73 72 71 75 73 72 74 82 94 96 94 95
96 97 98 97 96 95 96 96 93 97 90 93 92 96 90 98 97 94 99 98 99 100 100 100 100 100 96 93 100 99 98 98 95 92 94 98 94 89 84 79 77 72 76 80 81 81 84 87 87 91 97 98 96 92
93 94 93 93 94 95 94 90 88 86 83 97 95 98 99 99 99 100 100 100 100 100 100 100 100 100 100 100 100 96 100 97 100 99 94 99 95 93 81 78 79 85 91 90 90 92 96 98 98 96 92 90 91 93
87 88 92 96 92 88 86 86 83 85 92 98 93 99 99 100 99 100 100 100 99 100 100 100 100 96 100 100 99 98 99 96 97 99 100 100 97 88 84 82 88 92 94 94 90 93 95 92 91 93 94 92 93 92
80 78 86 91 88 88 86 86 91 93 98 94 98 98 99 98 99 99 100 100 99 100 100 100 100 98 99 99 95 98 94 99 99 100 100 98 92 88 86 87 89 88 91 93 91 89 89 91 90 89 90 92 94 91
79 88 85 79 78 69 82 91 94 98 96 96 99 100 100 100 99 100 100 100 99 100 100 100 98 99 99 98 99 98 99 99 100 100 100 98 98 98 98 96 93 94 95 95 92 88 86 86 90 87 81 76 76 87
91 85 85 79 76 72 83 89 95 94 98 99 98 99 99 100 99 99 99 99 100 100 99 99 98 97 97 97 97 98 99 100 100 100 99 99 98 99 97 97 99 97 96 93 91 90 84 85 76 78 80 78 78 83
86 81 81 81 80 84 86 90 88 98 99 100 99 99 100 99 93 89 90 92 94 93 97 97 94 96 97 97 98 98 98 99 99 99 99 99 98 98 98 99 98 98 97 94 88 85 80 75 79 81 84 82 91 94
76 80 84 83 75 88 85 90 87 96 98 100 99 98 98 99 96 85 83 82 82 89 92 95 96 97 97 96 97 97 97 98 99 99 99 99 99 99 99 98 96 96 95 92 85 83 84 88 87 86 85 84 93 98
81 85 85 85 91 86 94 95 92 98 99 95 98 98 98 91 81 86 90 82 80 95 94 96 97 97 96 96 95 96 94 93 95 98 97 95 95 93 93 95 95 94 93 93 94 95 95 94 94 93 96 96 96 99
92 84 95 86 88 85 87 87 91 95 90 95 93 94 96 97 98 96 92 88 95 97 97 96 95 90 87 90 92 93 94 89 93 93 94 94 94 94 94 95 94 95 95 96 95 96 96 93 94 95 95 96 95 94
83 86 91 84 85 84 88 93 85 86 90 93 92 88 96 98 99 93 97 94 96 95 95 86 86 86 87 87 86 88 87 84 90 92 94 94 94 95 94 94 95 95 95 95 94 95 95 90 91 93 92 93 97 98
79 91 98 95 90 100 89 87 90 89 91 92 92 94 96 98 95 94 98 95 95 91 91 93 86 84 82 85 90 91 92 84 89 93 94 91 92 94 92 93 93 94 92 88 89 93 93 95 92 91 95 100 100 100
82 91 85 88 90 82 82 91 91 93 96 98 96 94 92 95 95 98 98 98 95 96 95 93 89 92 96 96 94 94 92 86 92 93 95 94 94 92 92 89 92 93 90 94 97 97 98 98 99 100 100 100 100 100
86 97 88 80 94 90 85 93 93 93 97 98 98 96 98 94 95 99 96 98 97 98 98 98 98 94 93 87 91 93 93 86 81 90 90 86 90 96 97 97 94 95 96 100 100 100 100 100 100 100 100 100 99 100
92 98 95 97 98 95 94 95 94 95 100 99 100 98 96 98 99 97 97 97 98 98 97 97 94 94 94 94 93 94 94 92 88 88 88 86 86 88 94 98 99 95 99 99 100 100 100 100 100 100 100 100 100 100
99 98 97 93 92 94 96 98 99 99 99 95 96 99 98 99 99 96 96 96 96 96 94 93 91 90 92 89 91 91 95 98 94 94 92 92 94 92 97 98 99 99 100 100 100 100 100 100 99 100 100 100 100 100
97 97 89 88 92 95 98 98 98 99 94 98 97 98 98 95 96 97 96 95 94 92 95 96 96 96 95 92 94 93 90 91 93 100 100 100 100 98 96 96 98 99 100 100 100 97 99 98 99 100 100 100 98 100
93 96 93 96 98 98 100 98 98 97 98 99 94 87 90 97 96 96 95 95 94 96 97 96 97 94 98 100 100 98 100 99 94 96 100 100 100 99 100 100 100 100 100 100 100 99 100 100 100 100 100 100 100 100
95 93 95 99 99 98 98 97 94 95 98 98 96 97 98 98 98 95 95 97 95 96 95 97 98 100 99 100 100 100 100 99 100 99 100 100 100 100 100 100 100 100 100 100 100 100 100 100 100 100 100 100 100 100
93 93 97 99 98 97 98 97 99 98 98 99 100 100 100 99 100 98 98 97 96 97 99 100 100 99 100 100 100 100 99 100 100 100 100 100 100 100 100 100 100 100 100 100 100 100 100 100 100 99 98 99 100 100
95 95 97 96 97 98 97 97 98 97 97 99 99 99 100 97 99 98 98 97 98 100 100 100 100 100 98 98 98 100 100 100 100 100 100 100 100 100 100 100 100 100 100 100 100 100 100 100 100 100 99 100 99 100

GFSWCAN_sfc_rhum_033.txt.gz
RH
92 93 92 91 91 89 86 84 79 78 78 80 79 81 80 84 87 92 94 95 94 94 92 87 91 71 56 54 69 74 81 87 96 87 88 89 90 81 78 68 69 74 89 95 94 83 65 50 48 41 50 66 58 58
88 87 89 88 86 84 83 80 78 79 79 83 84 84 84 84 87 89 98 96 94 97 95 86 83 78 82 48 65 92 64 80 83 92 99 96 93 95 84 88 72 63 70 80 72 73 56 56 46 55 60 57 59 62
81 82 82 81 81 80 79 80 81 81 82 82 82 84 85 84 84 92 97 98 96 97 93 97 88 74 74 78 67 82 87 78 84 87 97 97 85 93 88 89 81 68 70 73 67 68 65 77 80 73 73 75 76 78
82 82 82 84 84 84 83 83 84 83 84 83 83 84 85 83 86 88 95 95 91 94 100 90 84 88 77 76 70 66 67 92 92 95 100 99 90 81 89 74 82 71 68 74 85 88 80 76 77 72 71 72 73 71
84 84 84 83 88 88 85 86 83 87 87 85 84 85 85 83 86 89 93 94 94 92 100 96 88 87 88 85 68 69 82 83 86 94 96 92 96 92 98 89 90 69 68 78 83 76 69 80 77 73 75 78 76 75
86 85 80 79 84 85 89 91 87 86 84 84 84 83 88 89 85 91 97 93 94 97 99 99 89 92 93 88 80 64 76 90 89 88 100 96 87 84 91 92 64 66 65 59 62 73 82 81 82 79 83 83 79 76
87 85 80 84 84 84 81 85 90 90 86 87 90 92 88 87 90 95 92 92 88 95 99 99 99 88 93 97 98 97 95 98 96 97 98 94 94 78 95 86 65 79 80 79 76 76 88 84 91 84 84 84 81 80
90 90 90 89 90 90 92 91 85 87 87 88 87 89 88 84 88 94 99 90 84 93 98 100 98 99 92 99 100 99 99 97 98 99 98 98 99 97 83 82 84 79 78 79 83 78 78 81 81 83 79 81 87 92
90 93 93 94 95 96 95 94 93 93 93 92 91 91 94 94 97 98 99 96 99 97 100 100 99 100 95 100 100 99 98 100 98 100 100 98 100 94 89 86 85 80 82 88 81 80 80 83 82 81 82 83 88 90
92 93 92 92 92 93 93 91 92 93 93 94 92 93 100 99 93 92 95 97 100 100 98 100 99 100 99 100 100 99 100 100 100 100 97 99 99 90 92 85 85 84 80 79 93 96 90 88 84 84 82 78 79 86
90 90 90 90 89 92 92 92 94 91 93 96 99 100 99 96 94 98 100 100 99 100 99 99 100 100 96 99 100 99 100 99 99 99 98 100 99 94 94 94 89 83 81 87 82 82 80 77 86 88 88 87 89 89
85 87 87 86 88 90 92 92 94 96 94 94 96 97 97 94 98 99 100 99 98 98 100 100 100 99 100 95 99 99 99 95 99 94 96 99 98 98 96 96 94 87 83 80 74 78 79 76 78 84 88 92 93 92
90 88 89 91 90 89 91 91 94 97 99 96 94 96 96 100 100 99 99 100 99 100 100 100 100 100 97 96 99 99 98 98 97 97 97 98 98 93 87 83 84 80 79 79 80 79 80 84 85 89 96 96 95 90
96 95 93 94 92 93 93 95 94 98 95 97 99 98 99 99 99 99 99 99 100 100 100 100 100 100 100 99 100 96 100 96 98 97 95 99 98 92 88 87 87 92 94 92 90 89 90 92 97 96 95 92 89 90
95 95 96 96 97 96 96 96 95 95 93 99 95 99 99 100 99 99 100 100 99 99 100 100 99 97 99 99 99 99 98 98 99 99 100 100 93 89 91 92 93 94 94 93 91 93 96 91 90 92 93 91 88 90
88 87 94 95 94 91 90 90 92 92 94 95 98 98 99 99 99 99 99 100 99 100 100 99 99 97 99 100 99 98 97 99 99 99 100 97 95 95 96 93 94 92 95 97 96 92 92 93 88 91 93 92 89 87
84 94 88 90 89 88 88 93 93 95 98 93 99 100 99 99 99 99 99 99 99 100 100 99 98 99 99 98 97 98 98 99 99 99 100 99 98 99 99 98 98 98 96 90 92 93 89 89 88 86 89 86 76 84
93 90 85 82 77 83 89 90 93 93 98 99 99 98 98 98 98 96 98 98 99 99 99 99 96 95 97 96 97 97 98 99 99 99 99 99 99 100 98 98 98 94 96 97 90 84 86 84 78 79 78 81 83 85
88 83 82 82 78 83 88 92 90 98 99 100 99 99 98 97 96 96 96 95 93 93 96 95 94 96 97 97 97 97 97 98 99 99 98 99 99 100 100 99 99 98 97 94 82 81 80 80 84 84 84 85 92 88
79 81 82 79 75 88 88 94 91 97 98 100 95 83 86 86 88 86 83 79 79 84 91 94 96 96 97 96 96 97 96 97 99 97 96 95 96 96 97 97 96 95 93 92 93 93 91 92 92 92 93 93 95 96
81 87 78 82 89 85 92 94 99 99 99 98 98 97 97 81 79 83 84 76 78 93 94 96 97 97 96 95 94 95 94 93 95 96 96 93 94 92 93 94 94 93 93 94 94 95 94 95 94 93 96 97 97 97
92 76 92 80 84 83 88 90 93 96 91 96 94 93 97 98 97 97 82 86 93 96 96 95 94 92 88 89 90 92 91 87 91 91 93 92 93 93 94 95 93 95 95 96 94 96 96 94 95 95 96 97 96 93
80 84 90 82 82 82 87 93 88 89 92 97 92 91 98 100 100 91 97 90 95 94 94 91 88 85 87 88 86 87 86 82 88 90 93 93 93 94 94 94 94 95 95 94 93 94 95 93 90 94 95 96 97 97
72 86 93 94 88 99 89 90 91 92 94 92 95 98 97 99 93 93 97 92 94 92 90 91 88 86 82 85 90 91 92 85 90 93 92 88 91 93 91 92 91 92 93 88 91 95 94 97 94 95 97 100 100 100
82 91 84 88 91 81 92 94 94 92 99 100 95 96 97 94 98 98 98 97 95 96 96 92 89 91 96 96 94 94 90 87 92 93 95 93 95 91 91 89 92 90 88 93 98 99 100 100 100 100 100 100 100 100
98 98 94 86 93 88 92 96 100 98 99 99 99 98 94 94 95 100 95 98 97 98 98 99 100 96 94 93 95 96 98 90 80 91 88 81 85 93 96 96 98 99 98 100 100 100 100 100 100 100 100 100 100 100
100 99 93 97 98 94 96 97 95 96 99 97 99 97 94 99 100 97 97 97 98 98 95 95 93 93 93 91 90 93 95 92 92 92 92 91 94 96 99 100 100 98 100 100 100 100 100 100 100 100 100 100 100 100
100 98 95 93 94 96 100 100 100 98 100 97 92 99 100 100 100 97 97 96 96 94 93 90 86 86 91 91 96 97 97 97 94 94 96 95 94 95 99 97 97 100 99 100 100 100 100 100 100 100 100 100 100 100
99 98 88 94 95 97 98 99 99 98 93 96 99 99 100 94 97 97 96 95 95 93 96 97 97 98 96 94 96 97 93 95 90 95 100 100 100 98 100 100 100 100 100 100 100 99 99 99 100 100 100 100 100 100
95 98 96 100 98 99 100 99 99 99 97 99 94 83 90 97 96 95 94 94 94 97 100 100 100 98 100 100 100 98 99 99 98 98 100 100 99 99 100 100 100 100 100 100 100 99 100 100 100 100 100 100 100 100
97 97 98 98 99 98 98 93 92 93 98 99 98 97 99 98 98 97 96 98 98 98 97 99 100 100 100 100 100 100 100 99 100 100 100 100 100 100 100 100 100 100 100 100 100 100 100 100 100 100 100 100 98 100
97 100 99 100 98 97 97 99 99 99 100 100 100 100 99 99 100 99 98 98 97 100 100 100 100 100 100 100 100 100 100 100 100 100 100 100 100 100 100 100 100 100 100 100 100 100 100 100 100 100 100 100 100 100
98 99 98 99 98 98 98 98 97 98 98 99 100 99 100 98 100 98 99 99 97 98 100 100 100 100 98 98 98 100 100 100 100 100 100 100 100 100 100 100 100 100 100 100 100 100 100 100 100 100 100 100 98 98

GFSWCAN_sfc_rhum_036.txt.gz
RH
84 82 84 81 83 82 82 88 91 90 89 85 82 79 77 75 79 83 90 91 97 97 87 82 82 74 64 62 72 78 80 88 97 87 92 90 91 83 82 73 79 81 90 92 91 84 75 48 50 48 53 70 62 60
94 90 93 93 92 92 91 90 90 88 88 85 82 78 78 80 79 78 95 86 90 99 91 89 86 74 77 62 57 75 63 86 84 89 98 98 92 96 80 83 70 69 73 79 71 74 59 57 53 49 56 60 61 60
88 91 91 90 90 91 90 90 88 86 85 80 78 82 83 81 81 77 94 87 95 98 91 89 89 78 78 78 73 62 91 81 84 83 94 97 88 93 89 85 80 72 66 70 65 59 63 65 78 72 71 68 71 75
83 86 88 90 90 90 89 88 87 84 81 78 83 84 84 83 82 78 92 96 93 94 99 91 83 92 83 82 80 80 73 90 90 94 97 98 92 84 89 73 84 73 67 77 75 85 84 76 78 73 80 79 76 75
81 84 84 83 83 82 82 82 82 83 83 82 83 82 83 84 86 88 92 98 92 97 98 96 87 82 85 93 93 83 76 91 95 96 99 92 97 93 99 92 90 74 70 78 70 66 63 62 77 77 80 81 78 79
85 85 85 85 85 86 84 84 84 84 83 83 84 84 84 84 85 94 98 97 93 91 93 99 88 92 84 95 99 86 74 93 92 89 99 96 91 90 92 89 61 64 63 64 52 73 86 84 84 80 83 82 78 78
82 85 87 88 89 87 86 85 86 86 86 85 86 85 85 86 91 93 96 93 91 92 96 99 99 89 91 97 99 97 95 99 95 97 99 96 96 84 95 81 54 70 70 78 78 76 87 81 89 86 83 81 79 80
83 84 81 82 88 90 88 87 88 87 86 86 86 86 94 90 82 89 96 93 79 92 92 100 98 96 93 100 100 99 100 97 98 99 98 99 99 98 84 73 90 85 81 80 83 80 78 86 87 88 82 82 88 94
91 91 91 91 89 92 92 87 86 86 85 89 94 89 87 95 98 95 91 89 97 90 97 100 99 98 96 99 100 99 97 100 98 100 100 98 100 93 87 91 90 88 82 89 86 85 85 90 91 88 88 90 94 96
94 94 96 93 92 91 89 91 91 93 94 90 87 97 100 96 96 89 99 96 98 97 99 100 99 100 97 100 100 100 100 100 100 100 98 100 99 91 94 92 92 89 83 80 96 97 93 94 93 90 89 87 88 90
93 94 94 94 94 93 93 91 88 88 85 95 98 99 95 93 97 99 100 99 99 99 99 99 99 99 98 99 100 100 100 100 99 99 98 100 99 95 96 94 88 82 80 85 78 80 82 82 86 88 88 87 90 88
90 91 91 92 92 93 93 92 91 91 96 95 98 98 98 95 99 96 99 100 99 99 100 100 100 97 100 98 100 99 99 99 99 96 100 99 99 98 98 98 94 90 87 86 80 82 83 83 81 84 86 89 90 92
90 89 88 89 90 90 92 94 93 98 96 98 95 96 91 99 98 98 99 99 100 100 100 100 100 100 100 98 100 100 98 99 98 99 99 100 99 95 93 90 88 83 84 83 83 82 85 89 90 93 97 96 89 83
88 88 89 89 90 91 92 94 96 98 98 98 100 98 99 98 99 99 99 99 100 100 100 100 100 100 100 100 100 99 100 96 98 97 99 99 99 98 94 90 88 92 93 93 94 94 96 97 98 97 94 90 87 90
92 92 90 91 92 94 95 96 97 97 95 99 99 98 98 100 100 100 100 100 99 99 100 100 99 98 100 99 100 98 94 99 98 99 99 99 99 97 96 94 95 96 96 96 96 95 96 96 96 96 94 91 91 93
92 91 98 95 95 96 96 96 97 91 95 96 98 98 99 98 98 98 98 99 99 99 100 98 98 99 99 99 91 98 96 97 98 99 99 99 99 99 98 98 98 98 97 97 97 96 95 94 93 92 88 90 91 90
87 99 98 97 95 93 92 93 92 94 96 93 98 98 98 99 98 98 98 98 98 100 99 98 95 98 89 95 96 96 98 98 98 99 99 99 99 98 98 98 98 97 97 97 96 96 95 96 95 83 77 74 75 85
97 97 93 93 83 83 92 91 93 91 98 99 96 98 96 97 96 96 97 98 99 99 96 98 92 93 98 97 96 97 97 96 99 99 98 99 99 99 98 98 97 97 96 96 95 95 95 95 90 87 76 76 85 86
96 93 90 90 95 96 94 94 90 96 98 99 97 96 96 95 82 84 86 85 88 87 92 90 92 95 96 96 97 97 97 97 98 96 95 96 98 98 98 97 97 96 95 94 91 92 92 89 86 86 86 86 91 88
79 80 82 88 91 92 92 97 90 96 98 96 90 80 82 86 85 84 79 76 76 81 88 92 95 96 96 96 96 96 96 96 97 94 94 93 94 94 95 94 94 94 92 93 93 94 92 92 92 93 94 94 96 96
75 79 70 78 88 85 93 97 98 99 98 96 99 98 93 80 79 82 81 71 75 91 93 95 96 96 96 95 94 94 93 92 94 95 95 93 94 92 92 93 93 92 92 94 94 94 93 94 94 93 96 97 97 97
90 71 90 79 81 82 87 88 94 97 92 95 93 95 98 98 98 97 83 85 92 95 95 95 93 92 89 90 91 92 91 87 91 90 91 88 92 91 92 94 90 94 94 95 94 95 95 94 94 94 96 97 95 94
76 82 88 81 81 80 85 92 87 90 94 97 94 92 98 99 98 87 97 89 94 93 94 91 89 84 86 86 84 86 84 81 87 89 91 91 91 92 91 92 93 94 94 94 92 93 95 91 92 95 95 95 97 97
70 86 92 91 85 97 91 93 91 94 94 94 96 99 98 100 94 94 98 93 94 91 88 90 87 83 80 84 90 90 91 83 88 92 89 85 89 91 88 88 87 88 90 86 91 96 95 97 95 96 99 100 100 100
82 94 85 90 92 85 94 94 97 94 100 100 96 97 100 94 97 99 98 98 96 97 96 92 89 92 96 96 95 94 89 86 91 92 91 90 97 91 92 92 96 95 93 96 100 100 100 100 100 100 100 100 100 100
97 98 98 99 96 91 99 99 100 100 99 99 99 96 93 94 95 100 96 98 97 98 98 98 100 96 95 94 97 97 99 88 82 94 95 90 90 98 100 100 100 99 97 100 100 100 100 100 100 100 100 100 100 100
99 98 92 92 97 95 99 99 95 96 98 94 98 98 93 100 100 98 96 96 97 97 93 92 90 94 96 92 92 96 96 93 92 93 93 92 94 95 99 100 100 99 98 100 100 100 100 100 100 100 100 100 100 100
97 92 93 94 98 97 100 100 100 99 99 96 88 100 100 100 100 97 97 96 95 91 92 92 92 93 97 96 97 97 98 99 96 95 95 92 95 99 100 100 100 100 100 100 100 100 100 100 100 100 100 100 100 100
100 99 92 99 96 97 98 100 99 98 92 100 99 100 100 94 98 98 96 95 95 94 97 98 98 99 98 98 98 99 98 97 91 99 100 100 100 98 100 100 100 100 100 100 100 100 100 100 100 100 100 100 100 99
96 98 98 99 97 99 100 99 100 99 95 99 95 84 90 98 97 96 96 95 96 100 100 100 100 99 100 100 100 100 100 100 100 99 100 100 100 99 100 100 100 100 100 100 100 100 100 100 100 100 100 99 100 99
98 96 98 99 99 100 98 98 99 98 99 100 99 99 99 99 99 98 99 100 100 100 100 100 100 100 100 100 100 100 100 100 100 100 100 100 100 100 100 100 100 100 100 100 100 100 100 100 100 100 100 100 99 100
99 100 99 100 98 98 98 98 100 100 100 100 100 100 100 99 100 100 99 98 97 99 100 100 100 100 100 100 100 100 100 100 100 100 100 100 100 100 100 100 100 100 100 100 100 100 100 100 100 100 100 100 100 100
98 100 99 100 98 99 98 97 98 99 100 100 100 100 100 98 100 98 99 100 97 98 100 100 100 100 100 100 100 100 100 100 100 100 100 100 100 100 100 100 100 100 100 100 100 100 100 100 100 100 100 100 100 100

GFSWCAN_sfc_rhum_042.txt.gz
RH
89 88 83 87 88 86 84 88 88 84 83 80 81 84 90 88 84 70 86 72 66 73 63 66 66 60 49 48 60 50 55 62 72 77 72 60 80 62 43 39 60 59 66 80 60 83 74 31 29 33 29 35 27 30
91 88 86 87 87 88 90 83 81 82 81 80 81 87 89 87 87 70 89 68 66 75 90 70 76 76 80 35 42 55 43 47 49 60 68 57 95 95 57 66 48 67 48 51 46 46 31 34 26 26 29 26 33 31
88 88 87 88 88 86 84 84 84 83 82 83 86 87 89 89 83 71 88 70 61 70 79 84 67 66 82 64 56 48 45 34 47 43 67 72 88 76 93 61 48 50 56 66 55 30 36 34 26 29 28 28 28 29
94 87 88 89 89 88 88 87 85 82 85 88 88 90 88 90 80 72 73 69 59 60 82 59 58 74 64 63 61 58 52 46 54 55 70 84 88 50 66 46 61 38 50 48 46 34 40 38 33 28 32 36 37 31
94 93 92 89 89 90 88 88 87 90 91 88 90 88 92 84 75 80 79 66 48 47 83 63 49 49 49 53 59 66 60 56 53 76 88 79 53 65 72 67 66 42 42 58 58 35 40 27 28 31 35 42 39 38
92 93 94 92 94 94 94 93 91 90 89 88 94 92 89 85 77 93 98 72 59 54 83 99 74 72 70 70 86 77 61 57 55 60 74 55 61 66 87 62 33 33 35 35 35 42 41 45 44 34 40 40 40 41
87 90 92 92 93 93 92 91 91 91 91 90 92 90 86 82 83 79 69 70 70 68 70 84 81 70 74 80 90 88 78 69 61 72 74 64 75 64 92 74 32 32 33 37 52 52 48 50 46 54 47 47 55 43
88 87 87 88 89 90 91 90 90 89 89 90 90 88 85 78 72 76 87 87 74 67 77 90 91 94 82 96 100 89 89 87 81 79 84 73 72 83 80 48 41 38 48 54 54 55 60 54 52 54 54 54 56 57
89 88 88 86 86 87 86 88 88 86 82 82 84 82 78 77 88 92 90 84 86 84 90 93 96 100 94 99 99 100 98 100 89 97 81 76 88 80 57 54 54 60 63 59 65 58 60 60 61 62 62 62 60 68
90 89 89 89 88 86 86 85 86 86 85 81 74 91 99 94 87 96 94 94 97 81 78 95 83 100 94 100 100 100 100 100 100 99 88 99 76 67 72 70 67 68 65 65 74 78 72 74 70 65 65 62 65 68
88 89 90 90 89 88 87 86 87 84 77 74 94 98 74 86 79 78 92 98 99 97 84 89 90 95 98 100 99 94 100 100 100 98 96 98 85 85 82 76 69 68 65 65 62 63 63 62 66 73 74 72 73 74
90 86 89 90 89 88 86 85 82 86 82 94 84 76 85 82 81 96 98 100 100 84 96 98 95 84 94 84 86 96 100 100 100 98 99 96 98 95 92 87 78 73 69 67 65 68 69 67 68 73 79 87 92 93
92 89 89 89 89 89 85 89 93 92 95 80 79 88 91 99 100 100 100 100 100 100 99 100 100 100 93 79 97 99 100 100 100 100 97 97 98 96 96 93 94 88 85 83 82 83 87 89 88 93 96 96 96 96
92 92 89 90 94 94 91 91 89 88 84 98 100 98 100 97 97 96 99 100 100 100 100 100 100 100 100 100 100 100 100 99 100 96 95 94 98 99 100 100 96 98 97 97 97 97 97 97 98 98 97 98 97 97
89 91 92 96 97 92 90 89 88 87 97 98 92 96 97 98 96 97 99 100 99 100 100 100 100 99 100 100 100 100 99 95 89 90 91 93 100 100 99 98 97 97 97 96 96 96 97 97 97 96 97 97 95 96
82 76 88 94 91 89 90 91 92 93 99 81 83 94 95 96 96 96 97 98 98 99 100 100 99 100 96 94 90 94 89 89 92 93 94 96 98 98 98 97 97 97 96 96 96 95 93 95 95 94 94 96 96 95
86 86 96 88 85 85 84 90 91 99 90 92 95 96 96 96 96 97 97 96 96 98 97 82 86 95 80 80 87 85 92 93 95 94 93 96 97 97 97 97 96 93 93 94 92 92 93 94 94 90 88 90 88 90
98 96 92 83 73 78 79 80 79 84 92 92 92 96 94 94 96 93 88 84 87 78 70 82 63 80 87 84 88 91 92 94 94 93 93 95 96 96 95 94 93 94 94 94 92 92 92 91 86 87 86 87 85 82
96 94 92 92 85 81 93 88 64 84 92 88 79 73 76 85 77 76 78 72 68 64 65 65 78 83 89 87 92 93 93 92 92 90 90 93 94 94 93 92 92 92 90 90 86 85 86 88 87 85 85 80 82 84
96 94 90 90 86 92 96 90 65 70 73 68 68 70 71 73 73 82 78 66 57 59 74 78 87 90 89 90 90 90 90 91 89 89 89 88 88 89 92 88 87 89 85 84 83 82 75 77 79 82 84 83 86 89
90 94 83 83 76 84 91 86 85 70 71 75 80 63 65 67 80 84 80 58 72 73 82 87 91 92 90 88 85 85 88 86 88 87 88 86 87 82 82 86 86 83 82 84 85 84 83 84 80 78 87 90 88 87
83 67 76 70 75 77 75 72 75 76 69 75 74 66 78 84 82 82 60 74 79 89 86 86 85 81 77 83 81 80 82 77 81 80 84 80 84 83 84 82 77 83 80 81 78 84 79 72 73 75 82 84 75 80
66 65 72 74 81 84 77 65 80 69 79 81 74 73 77 79 71 52 78 70 82 82 83 80 80 74 79 81 75 71 65 62 62 64 68 66 66 73 70 70 71 77 76 69 64 71 79 73 75 81 78 78 80 81
61 80 85 84 76 86 82 85 67 72 78 80 78 85 85 79 61 70 79 73 83 76 73 78 72 71 68 72 69 68 59 53 63 72 64 61 67 68 66 68 70 71 70 65 70 77 78 83 78 76 80 79 80 81
82 92 84 91 81 81 88 94 90 84 95 89 85 87 86 70 81 80 79 79 82 87 84 76 69 68 80 78 71 71 66 56 61 65 70 61 68 64 65 64 70 69 71 80 82 82 83 83 82 81 77 81 83 80
95 96 88 94 93 85 86 94 94 94 89 90 91 78 78 78 81 86 73 85 82 88 91 89 86 79 72 65 69 69 67 56 55 71 66 60 63 74 76 75 72 77 74 82 84 82 79 80 82 80 80 77 80 83
94 95 82 72 78 79 88 84 77 83 89 92 88 84 79 87 88 79 79 80 79 86 78 82 74 73 73 72 69 67 63 64 67 65 65 64 66 69 77 82 82 80 75 79 81 83 84 82 81 80 81 78 80 82
84 79 91 92 84 79 91 88 88 92 89 78 72 93 87 83 83 79 79 82 79 76 80 80 76 73 76 76 78 78 79 77 81 74 72 72 71 77 82 82 84 89 84 85 83 80 80 80 80 79 80 82 82 80
92 88 77 95 86 87 91 92 91 84 78 78 86 86 85 76 83 84 83 80 81 80 85 85 87 84 84 82 84 83 79 76 60 58 61 78 80 83 80 81 81 82 83 82 77 81 80 80 81 84 82 85 83 81
91 88 84 89 92 92 94 89 91 89 78 82 73 70 72 82 87 83 84 85 85 91 92 90 89 83 86 83 88 87 88 86 86 83 82 84 86 86 86 84 83 84 85 83 83 78 81 83 81 80 81 82 83 84
85 83 84 81 87 85 86 87 87 82 84 87 85 86 87 87 86 84 84 87 89 90 86 88 90 89 87 86 84 81 84 88 91 87 88 88 88 86 86 87 86 88 85 83 84 85 86 84 83 84 82 83 84 86
91 92 87 89 92 87 89 92 90 88 90 86 91 90 92 88 89 88 89 90 90 89 97 92 89 90 90 88 89 89 99 89 87 89 88 89 87 86 86 84 88 88 86 84 84 85 84 85 86 85 85 84 85 87
91 88 87 88 91 92 89 89 83 90 89 88 91 91 90 84 85 87 88 89 86 83 85 88 90 90 88 86 84 89 84 85 93 100 98 96 98 96 92 86 88 87 86 85 84 85 85 84 84 84 83 86 86 86

GFSWCAN_sfc_rhum_045.txt.gz
RH
92 91 86 86 87 87 85 86 85 84 85 84 85 82 82 81 89 90 92 63 59 67 56 46 44 58 40 37 52 41 47 51 62 73 70 49 59 34 31 22 46 65 64 79 63 66 72 28 23 30 28 24 22 21
93 88 84 85 89 90 86 90 90 90 90 82 86 84 82 82 89 85 94 59 68 85 96 64 58 58 47 31 37 46 50 52 41 51 55 46 74 84 41 59 22 57 50 57 43 44 34 31 28 24 19 20 23 22
89 87 87 86 88 89 89 89 90 88 87 88 87 82 81 87 87 90 84 72 79 89 82 58 54 54 55 59 57 71 47 34 37 33 40 54 65 64 79 60 35 26 39 56 44 33 28 31 28 23 22 24 21 21
91 90 88 87 88 85 86 85 86 86 84 82 82 82 84 87 87 84 70 63 67 66 92 59 40 50 47 58 64 63 62 42 37 35 56 66 73 29 62 46 50 33 39 43 39 26 26 23 27 28 23 24 23 22
94 91 88 90 89 88 86 85 84 83 83 83 82 85 88 88 87 73 74 72 62 56 70 54 41 48 60 75 76 63 61 59 44 59 79 73 43 41 45 51 51 25 36 51 50 27 39 37 28 23 27 26 29 28
94 94 93 88 89 88 88 85 85 84 86 87 89 92 90 85 81 85 98 82 64 51 54 88 55 42 48 63 73 65 56 56 48 42 71 44 32 39 72 59 29 21 26 29 33 31 38 36 30 28 25 25 26 30
94 94 94 94 94 91 94 91 89 93 93 93 90 87 82 74 69 90 83 59 56 44 50 65 68 51 44 48 66 73 62 56 68 69 67 55 45 53 74 69 29 21 19 19 24 30 47 38 35 37 34 29 37 29
92 94 94 93 93 93 93 92 92 93 91 86 84 81 86 80 76 73 80 69 55 43 47 66 78 80 59 78 83 69 77 71 63 66 55 63 54 64 70 38 31 28 30 35 40 42 42 45 42 42 39 41 44 37
90 92 92 91 91 92 90 89 89 88 89 89 86 84 84 85 89 91 85 78 52 46 62 77 88 97 91 92 80 85 86 89 60 81 72 58 75 79 53 38 33 49 56 54 55 52 46 51 45 49 48 48 45 48
87 88 89 90 88 86 87 89 90 88 85 82 65 64 81 82 88 78 89 91 73 68 76 84 66 95 94 100 100 99 98 98 99 97 64 75 70 58 70 63 58 60 57 54 63 62 60 60 54 53 50 50 49 57
88 88 88 86 85 85 84 84 85 79 76 57 84 84 85 90 96 94 100 98 98 93 71 72 82 88 84 99 100 94 100 98 100 96 92 83 76 94 92 82 70 63 60 58 56 55 55 55 55 58 61 61 64 66
89 89 89 88 88 88 85 81 78 67 74 90 74 60 68 72 72 92 93 96 94 75 86 90 82 73 89 92 99 96 100 100 100 99 98 97 93 90 94 94 87 79 71 65 61 62 61 59 60 68 78 87 93 95
90 90 89 88 86 84 88 89 91 91 88 75 63 76 72 97 99 99 100 100 100 100 99 99 98 92 91 98 98 99 100 100 100 99 94 92 86 85 96 97 92 89 90 88 88 87 87 90 90 95 97 97 94 96
92 90 88 88 90 90 89 86 88 93 69 93 100 100 100 99 97 95 97 100 100 100 100 100 100 100 100 100 100 100 100 96 100 96 95 88 94 97 97 96 90 96 97 97 97 97 97 96 97 97 98 98 97 97
87 90 92 91 89 87 85 85 81 75 73 92 78 95 94 98 94 96 100 99 94 99 100 100 100 99 99 100 98 99 99 93 86 90 90 91 98 98 98 98 97 96 97 97 97 97 97 97 96 97 97 97 96 96
86 86 97 91 90 87 83 78 74 74 78 85 83 92 91 95 94 93 95 94 94 97 100 100 100 98 96 91 91 96 81 84 91 92 93 95 97 98 97 97 98 98 97 97 97 96 95 96 95 95 95 96 96 96
77 77 85 84 80 77 79 82 75 85 86 92 94 95 95 93 95 95 96 93 95 99 99 95 90 95 90 90 91 90 93 93 94 93 92 94 95 96 96 96 96 96 96 96 95 95 96 96 93 89 90 91 89 92
81 84 84 82 72 68 65 68 80 84 92 92 92 95 94 95 96 95 96 94 97 94 90 90 72 87 93 92 89 92 92 95 93 93 93 94 94 95 94 95 95 94 94 94 94 95 94 93 88 91 88 89 87 87
82 85 91 88 78 75 84 87 65 86 90 91 88 88 91 94 86 82 84 72 66 62 62 62 76 83 89 86 93 94 95 92 92 90 90 93 93 93 93 91 91 92 92 92 87 85 82 83 85 82 84 80 85 86
94 93 91 85 75 79 82 85 54 62 73 73 73 73 74 77 77 84 81 62 53 56 71 78 85 90 89 90 89 89 89 91 86 87 88 87 87 87 90 85 84 82 75 74 75 72 67 70 72 74 76 76 82 85
91 94 81 70 72 76 82 77 68 61 62 74 73 64 70 69 80 82 78 55 73 72 82 86 91 92 86 85 80 78 84 80 86 86 85 83 83 76 76 77 75 72 73 75 75 71 72 71 65 65 78 82 80 77
92 74 75 68 67 70 70 65 65 61 57 62 62 59 74 82 81 76 58 72 82 86 84 81 81 74 74 79 75 72 76 72 74 71 71 69 74 72 71 69 66 73 70 73 71 79 74 68 68 70 77 79 69 73
63 60 64 66 95 89 80 56 84 59 78 71 62 67 74 77 66 48 73 67 81 81 77 72 74 69 71 67 64 60 56 54 56 59 64 62 61 70 67 66 68 75 73 65 60 67 74 67 68 75 73 72 75 75
61 86 92 90 79 92 87 85 57 62 70 69 68 78 77 73 56 65 77 72 77 68 66 74 67 65 60 62 59 56 53 52 59 67 60 57 61 61 59 61 64 65 64 58 64 70 70 77 70 69 74 74 75 74
74 90 89 87 80 82 84 87 83 71 80 74 75 77 80 67 74 73 75 80 83 88 84 70 65 67 77 74 66 63 58 51 56 60 64 57 63 58 57 58 62 60 63 76 77 76 76 76 75 74 71 76 77 74
88 89 83 85 82 80 78 84 83 83 78 80 84 73 79 76 74 80 72 85 83 88 90 89 84 72 64 58 62 62 57 49 50 65 57 54 58 71 71 70 68 74 67 76 79 77 74 73 74 72 74 70 71 75
84 86 76 63 67 70 81 79 72 78 82 83 81 80 78 79 81 77 76 77 78 82 72 74 70 66 64 62 59 58 57 60 63 58 57 55 58 62 73 79 79 75 69 73 75 76 77 76 75 74 75 74 74 76
78 74 86 84 79 72 81 78 79 82 82 70 69 86 82 78 80 80 78 78 76 71 73 72 68 64 65 65 67 68 71 70 73 64 63 63 63 69 71 72 76 72 74 77 78 76 75 76 76 75 75 77 78 74
82 80 69 86 77 79 84 82 82 77 72 74 81 79 79 70 80 84 81 74 73 75 81 81 81 79 78 74 77 76 74 74 64 52 46 73 75 79 71 73 74 74 76 76 65 70 75 77 77 79 76 78 76 75
84 80 76 79 82 86 89 84 89 85 70 73 68 66 72 80 80 78 78 78 79 85 84 81 81 79 81 82 83 79 80 79 81 80 78 78 80 78 77 77 77 77 77 77 77 72 60 74 72 74 75 75 76 79
74 76 74 73 83 88 88 86 83 79 79 85 80 81 82 85 83 76 76 79 81 82 81 82 83 80 81 79 77 75 81 83 80 76 79 78 77 78 78 78 78 80 79 77 77 78 78 78 76 74 74 74 75 77
81 77 78 83 88 86 84 84 81 82 81 82 86 82 86 83 82 84 82 83 83 82 92 82 81 84 80 81 80 83 85 78 76 78 63 79 78 76 76 74 76 78 78 79 78 78 77 77 79 77 78 75 76 78
79 80 79 81 86 84 85 79 73 81 80 80 84 82 83 80 81 88 80 83 88 82 80 80 80 81 80 72 72 80 74 76 82 87 80 81 89 86 84 79 78 78 78 80 79 78 77 76 78 76 77 78 78 79

GFSWCAN_sfc_rhum_048.txt.gz
RH
85 90 92 88 88 87 87 87 87 86 84 82 84 84 81 82 82 89 95 89 88 90 54 57 58 75 53 43 52 39 43 51 82 85 75 65 69 44 34 27 70 88 84 90 78 79 75 33 26 33 34 37 30 25
92 90 87 86 87 89 90 88 88 88 87 87 86 84 86 83 83 81 95 92 78 90 91 76 70 70 64 50 42 43 45 43 55 76 61 57 86 77 43 51 29 73 62 77 54 57 45 38 36 33 33 34 34 34
93 88 85 86 87 91 89 88 91 91 86 86 86 87 88 84 86 77 90 94 97 94 80 82 72 68 59 54 50 60 42 41 56 69 58 63 72 62 84 59 40 30 42 61 59 47 45 38 40 34 31 37 28 26
92 90 88 89 87 90 92 92 94 90 87 87 87 88 84 87 83 78 94 92 95 74 95 82 72 57 42 51 51 62 57 64 59 48 63 75 76 38 64 48 56 38 31 43 45 38 31 27 41 40 37 34 31 28
94 88 90 90 89 89 92 92 92 88 90 86 87 86 86 85 82 87 90 90 83 74 88 89 61 40 47 50 50 52 63 74 85 87 89 78 64 56 52 50 52 30 34 47 62 36 46 45 42 36 36 32 29 32
94 92 92 91 90 88 87 88 91 89 86 88 90 88 86 87 86 93 98 97 80 63 71 87 50 55 58 54 53 49 57 73 83 75 82 53 42 50 82 61 32 26 27 26 35 37 48 48 39 34 40 40 32 34
95 94 94 94 90 90 88 87 86 86 84 84 85 84 90 87 79 82 79 76 70 60 66 64 63 45 44 55 65 69 60 86 96 85 90 60 52 47 74 72 28 25 24 23 23 32 36 28 45 45 46 41 39 32
95 95 94 94 93 95 89 88 90 86 89 89 89 89 87 86 83 86 69 76 70 63 50 68 73 75 48 74 80 70 81 80 80 81 76 69 56 78 70 38 33 29 28 31 54 49 47 48 46 42 43 45 47 44
94 93 94 93 93 91 92 91 90 92 90 88 85 82 81 92 93 88 79 66 72 64 68 68 82 92 90 78 78 84 73 92 69 86 82 66 78 86 93 84 72 62 63 60 54 53 51 52 49 47 50 53 56 58
92 91 91 91 90 90 90 88 86 83 79 77 79 87 98 92 83 71 74 84 86 73 68 82 54 97 77 100 97 96 95 98 86 80 74 90 85 80 85 92 83 79 69 60 68 69 66 67 60 56 53 54 53 59
94 91 90 91 87 84 83 83 80 82 85 84 85 99 90 85 81 88 86 76 72 82 59 61 75 91 86 98 100 96 97 100 98 82 85 81 89 89 90 94 87 81 73 68 64 62 61 60 61 62 67 78 84 87
89 91 89 88 89 88 86 85 86 83 78 90 79 77 86 94 98 93 97 100 96 71 79 89 87 80 96 91 100 99 100 100 100 93 99 96 92 84 83 91 88 90 84 80 78 82 84 83 84 90 94 95 95 92
89 89 87 86 90 89 90 90 90 91 82 74 73 83 80 94 94 96 87 92 100 99 100 98 98 99 98 98 100 100 100 100 100 98 95 94 82 82 89 88 88 87 87 87 89 88 88 90 90 94 96 96 94 95
88 88 86 84 87 88 89 88 90 79 68 83 95 96 99 91 90 95 96 98 100 100 98 100 100 100 100 100 100 100 100 99 97 92 92 90 94 96 95 95 88 96 96 96 96 95 95 94 96 96 96 96 94 96
91 91 91 89 87 86 85 82 75 56 68 84 74 90 90 94 94 92 96 97 99 99 99 100 100 98 98 99 98 98 95 90 89 93 94 96 96 96 96 96 96 96 96 96 96 96 96 96 95 96 96 96 95 95
88 85 92 92 87 84 82 68 61 60 71 74 79 89 84 86 88 89 91 92 90 97 100 100 100 93 94 85 79 92 76 90 93 94 95 94 96 97 96 96 97 97 96 96 96 96 95 95 95 96 94 95 96 95
83 78 85 77 72 68 74 68 66 75 86 89 95 93 93 88 93 93 93 91 90 99 98 91 85 96 77 77 81 81 91 94 95 94 93 95 96 96 96 96 96 95 95 96 95 95 96 96 93 89 92 95 93 94
78 78 86 85 82 73 64 63 71 73 88 92 93 96 94 95 95 93 92 93 93 86 85 92 83 86 91 89 91 94 95 96 96 95 95 96 96 96 95 95 95 94 94 95 94 94 94 94 92 94 93 93 91 92
87 83 85 81 74 72 81 78 61 83 93 93 92 91 93 96 94 96 96 94 87 88 88 89 91 92 94 94 96 97 97 95 95 94 94 96 96 96 95 94 94 94 94 94 92 91 90 90 89 90 90 82 88 92
88 88 84 80 72 70 81 78 60 70 75 84 92 85 83 86 83 84 83 71 64 69 79 86 91 94 93 94 94 95 95 92 88 91 92 92 92 90 94 91 91 90 83 76 76 75 71 74 75 76 79 82 87 86
90 88 76 64 64 67 77 71 66 71 76 78 77 74 81 75 79 82 78 59 78 73 85 89 92 94 90 89 82 78 84 80 89 87 87 88 87 76 73 72 72 71 75 78 80 79 80 79 74 76 85 88 85 88
91 77 73 66 65 64 69 66 63 59 63 67 62 62 73 84 82 76 64 78 85 90 90 87 87 82 81 85 82 76 78 74 75 74 74 72 76 77 78 76 73 80 78 80 78 85 80 73 75 76 83 86 79 78
68 62 72 78 95 90 80 58 81 57 73 66 61 66 75 78 64 49 75 73 88 85 78 76 78 69 72 68 68 64 59 57 62 63 70 67 66 76 73 73 75 81 78 68 63 71 80 74 75 82 80 80 82 82
65 90 97 93 84 92 87 81 55 60 64 64 64 74 74 72 55 66 82 81 84 69 76 87 67 64 62 64 63 60 57 56 64 72 65 60 65 64 61 62 65 70 70 62 69 77 77 83 79 76 81 80 82 82
75 88 90 87 84 80 78 78 75 67 73 68 71 75 77 63 72 74 80 84 82 88 87 79 73 71 79 75 66 62 63 54 60 63 70 62 67 60 62 64 65 63 69 81 81 81 81 83 81 79 77 82 80 78
87 84 79 77 77 75 72 78 76 75 72 76 79 70 74 71 72 84 80 91 87 87 91 92 84 72 67 60 64 65 63 53 55 68 59 56 62 75 74 74 75 79 71 80 80 79 76 76 78 76 78 74 80 79
81 84 73 62 64 66 76 74 67 74 78 80 75 75 72 76 82 83 84 82 82 86 76 79 70 67 66 64 63 62 62 62 64 59 58 58 61 64 75 82 83 78 73 76 79 79 79 78 78 78 80 77 80 81
75 74 87 80 79 71 78 75 76 78 79 71 68 82 80 80 85 88 78 80 80 72 73 72 73 70 75 74 76 75 75 75 76 66 70 67 65 70 72 79 74 72 76 79 77 79 79 80 80 80 80 81 84 80
78 72 70 88 75 76 81 79 80 74 71 83 77 77 78 78 80 83 82 76 74 78 86 85 84 80 79 76 79 78 76 78 72 68 67 75 79 86 73 75 75 77 77 77 74 75 75 81 80 81 78 81 79 78
80 70 74 78 82 85 90 81 88 85 69 73 69 69 74 79 89 74 80 84 88 89 86 83 84 86 86 88 85 81 82 81 84 86 85 85 87 79 78 80 79 80 80 79 78 74 72 78 80 81 83 81 80 82
67 70 70 72 82 85 85 85 84 80 84 88 82 82 83 85 82 79 79 80 81 82 82 83 83 80 79 78 80 76 90 87 82 80 80 78 76 78 81 79 79 79 79 80 80 80 80 80 80 81 79 80 80 82
76 73 78 81 86 84 91 92 80 84 85 82 86 82 88 85 84 86 81 81 81 86 94 80 82 87 81 80 81 85 84 77 77 78 74 80 80 81 78 77 81 80 79 80 80 81 80 80 82 82 83 81 82 83
81 80 78 81 87 82 85 78 70 79 76 78 81 81 85 86 88 89 76 82 92 86 81 85 82 82 79 76 77 80 79 82 88 91 90 89 89 89 87 81 82 82 80 82 81 81 80 78 81 81 83 85 85 85